Wetterdaten: Dienstag, 09.06.2015
Datum Zeit Temp. Aussen +5cm Feuchte Auss BlattFeu 1 Luftdruck Regen Sonnenschein Regendauer Solar Windben
09.06.2015 00:00 12,0 C 10,6 C 70 % 0 lf 1028,5 hPa 0,0 l/m 0 min 0 min 0 W/m 27,2 km/h (4 Bft)
09.06.2015 00:02 11,9 C 10,6 C 70 % 0 lf 1028,5 hPa 0,0 l/m 0 min 0 min 0 W/m 20,9 km/h (4 Bft)
09.06.2015 00:05 11,9 C 10,6 C 71 % 0 lf 1028,5 hPa 0,0 l/m 0 min 0 min 0 W/m 23,0 km/h (4 Bft)
09.06.2015 00:06 11,9 C 10,6 C 71 % 0 lf 1028,5 hPa 0,0 l/m 0 min 0 min 0 W/m 23,0 km/h (4 Bft)
09.06.2015 00:08 11,9 C 10,6 C 71 % 0 lf 1028,5 hPa 0,0 l/m 0 min 0 min 0 W/m 20,9 km/h (4 Bft)
09.06.2015 00:10 11,8 C 10,6 C 71 % 0 lf 1028,5 hPa 0,0 l/m 0 min 0 min 0 W/m 20,9 km/h (4 Bft)
09.06.2015 00:12 11,8 C 10,6 C 71 % 0 lf 1028,5 hPa 0,0 l/m 0 min 0 min 0 W/m 14,6 km/h (3 Bft)
09.06.2015 00:14 11,7 C 10,6 C 71 % 0 lf 1028,5 hPa 0,0 l/m 0 min 0 min 0 W/m 20,9 km/h (4 Bft)
09.06.2015 00:16 11,7 C 10,6 C 72 % 0 lf 1028,5 hPa 0,0 l/m 0 min 0 min 0 W/m 18,8 km/h (3 Bft)
09.06.2015 00:18 11,7 C 10,6 C 72 % 0 lf 1028,5 hPa 0,0 l/m 0 min 0 min 0 W/m 16,7 km/h (3 Bft)
09.06.2015 00:20 11,6 C 10,6 C 72 % 0 lf 1028,5 hPa 0,0 l/m 0 min 0 min 0 W/m 18,8 km/h (3 Bft)
09.06.2015 00:22 11,6 C 10,6 C 72 % 0 lf 1028,5 hPa 0,0 l/m 0 min 0 min 0 W/m 23,0 km/h (4 Bft)
09.06.2015 00:24 11,6 C 10,6 C 72 % 0 lf 1028,5 hPa 0,0 l/m 0 min 0 min 0 W/m 23,0 km/h (4 Bft)
09.06.2015 00:26 11,5 C 10,6 C 72 % 0 lf 1028,5 hPa 0,0 l/m 0 min 0 min 0 W/m 25,1 km/h (4 Bft)
09.06.2015 00:28 11,5 C 10,6 C 72 % 0 lf 1028,5 hPa 0,0 l/m 0 min 0 min 0 W/m 20,9 km/h (4 Bft)
09.06.2015 00:30 11,4 C 10,6 C 72 % 0 lf 1028,5 hPa 0,0 l/m 0 min 0 min 0 W/m 20,9 km/h (4 Bft)
09.06.2015 00:32 11,4 C 10,0 C 72 % 0 lf 1028,5 hPa 0,0 l/m 0 min 0 min 0 W/m 20,9 km/h (4 Bft)
09.06.2015 00:34 11,4 C 10,0 C 72 % 0 lf 1028,5 hPa 0,0 l/m 0 min 0 min 0 W/m 20,9 km/h (4 Bft)
09.06.2015 00:36 11,4 C 10,0 C 72 % 0 lf 1028,5 hPa 0,0 l/m 0 min 0 min 0 W/m 23,0 km/h (4 Bft)
09.06.2015 00:38 11,3 C 10,0 C 72 % 0 lf 1028,6 hPa 0,0 l/m 0 min 0 min 0 W/m 16,7 km/h (3 Bft)
09.06.2015 00:40 11,3 C 10,0 C 72 % 0 lf 1028,5 hPa 0,0 l/m 0 min 0 min 0 W/m 16,7 km/h (3 Bft)
09.06.2015 00:42 11,3 C 10,0 C 73 % 0 lf 1028,5 hPa 0,0 l/m 0 min 0 min 0 W/m 18,8 km/h (3 Bft)
09.06.2015 00:44 11,3 C 10,0 C 72 % 0 lf 1028,5 hPa 0,0 l/m 0 min 0 min 0 W/m 25,1 km/h (4 Bft)
09.06.2015 00:46 11,2 C 10,0 C 72 % 0 lf 1028,6 hPa 0,0 l/m 0 min 0 min 0 W/m 20,9 km/h (4 Bft)
09.06.2015 00:48 11,2 C 10,0 C 72 % 0 lf 1028,5 hPa 0,0 l/m 0 min 0 min 0 W/m 18,8 km/h (3 Bft)
09.06.2015 00:50 11,2 C 10,0 C 72 % 0 lf 1028,6 hPa 0,0 l/m 0 min 0 min 0 W/m 18,8 km/h (3 Bft)
09.06.2015 00:52 11,2 C 10,0 C 72 % 0 lf 1028,5 hPa 0,0 l/m 0 min 0 min 0 W/m 16,7 km/h (3 Bft)
09.06.2015 00:54 11,2 C 10,0 C 73 % 0 lf 1028,6 hPa 0,0 l/m 0 min 0 min 0 W/m 12,6 km/h (3 Bft)
09.06.2015 00:56 11,1 C 10,0 C 73 % 0 lf 1028,5 hPa 0,0 l/m 0 min 0 min 0 W/m 14,6 km/h (3 Bft)
09.06.2015 00:58 11,1 C 10,0 C 73 % 0 lf 1028,6 hPa 0,0 l/m 0 min 0 min 0 W/m 25,1 km/h (4 Bft)
09.06.2015 01:00 11,1 C 10,0 C 73 % 0 lf 1028,5 hPa 0,0 l/m 0 min 0 min 0 W/m 16,7 km/h (3 Bft)
09.06.2015 01:02 11,1 C 10,0 C 73 % 0 lf 1028,5 hPa 0,0 l/m 0 min 0 min 0 W/m 14,6 km/h (3 Bft)
09.06.2015 01:04 11,0 C 10,0 C 73 % 0 lf 1028,6 hPa 0,0 l/m 0 min 0 min 0 W/m 16,7 km/h (3 Bft)
09.06.2015 01:06 10,9 C 10,0 C 73 % 0 lf 1028,5 hPa 0,0 l/m 0 min 0 min 0 W/m 14,6 km/h (3 Bft)
09.06.2015 01:08 10,9 C 9,4 C 73 % 0 lf 1028,6 hPa 0,0 l/m 0 min 0 min 0 W/m 12,6 km/h (3 Bft)
09.06.2015 01:10 10,9 C 10,0 C 73 % 0 lf 1028,6 hPa 0,0 l/m 0 min 0 min 0 W/m 16,7 km/h (3 Bft)
09.06.2015 01:12 10,9 C 10,0 C 73 % 0 lf 1028,6 hPa 0,0 l/m 0 min 0 min 0 W/m 18,8 km/h (3 Bft)
09.06.2015 01:14 10,9 C 10,0 C 73 % 0 lf 1028,6 hPa 0,0 l/m 0 min 0 min 0 W/m 14,6 km/h (3 Bft)
09.06.2015 01:16 10,9 C 10,0 C 73 % 0 lf 1028,6 hPa 0,0 l/m 0 min 0 min 0 W/m 14,6 km/h (3 Bft)
09.06.2015 01:18 10,9 C 9,4 C 73 % 0 lf 1028,6 hPa 0,0 l/m 0 min 0 min 0 W/m 16,7 km/h (3 Bft)
09.06.2015 01:20 10,8 C 10,0 C 73 % 0 lf 1028,6 hPa 0,0 l/m 0 min 0 min 0 W/m 16,7 km/h (3 Bft)
09.06.2015 01:22 10,8 C 9,4 C 73 % 0 lf 1028,6 hPa 0,0 l/m 0 min 0 min 0 W/m 16,7 km/h (3 Bft)
09.06.2015 01:24 10,8 C 9,4 C 73 % 0 lf 1028,6 hPa 0,0 l/m 0 min 0 min 0 W/m 16,7 km/h (3 Bft)
09.06.2015 01:26 10,8 C 9,4 C 73 % 0 lf 1028,6 hPa 0,0 l/m 0 min 0 min 0 W/m 8,4 km/h (2 Bft)
09.06.2015 01:28 10,7 C 9,4 C 74 % 0 lf 1028,6 hPa 0,0 l/m 0 min 0 min 0 W/m 12,6 km/h (3 Bft)
09.06.2015 01:30 10,7 C 9,4 C 74 % 0 lf 1028,6 hPa 0,0 l/m 0 min 0 min 0 W/m 8,4 km/h (2 Bft)
09.06.2015 01:32 10,6 C 9,4 C 74 % 0 lf 1028,6 hPa 0,0 l/m 0 min 0 min 0 W/m 16,7 km/h (3 Bft)
09.06.2015 01:34 10,6 C 9,4 C 74 % 0 lf 1028,6 hPa 0,0 l/m 0 min 0 min 0 W/m 14,6 km/h (3 Bft)
09.06.2015 01:36 10,5 C 9,4 C 74 % 0 lf 1028,6 hPa 0,0 l/m 0 min 0 min 0 W/m 16,7 km/h (3 Bft)
09.06.2015 01:38 10,4 C 9,4 C 75 % 0 lf 1028,5 hPa 0,0 l/m 0 min 0 min 0 W/m 14,6 km/h (3 Bft)
09.06.2015 01:40 10,4 C 9,4 C 75 % 0 lf 1028,6 hPa 0,0 l/m 0 min 0 min 0 W/m 12,6 km/h (3 Bft)
09.06.2015 01:42 10,4 C 9,4 C 75 % 0 lf 1028,6 hPa 0,0 l/m 0 min 0 min 0 W/m 14,6 km/h (3 Bft)
09.06.2015 01:44 10,3 C 9,4 C 75 % 0 lf 1028,6 hPa 0,0 l/m 0 min 0 min 0 W/m 14,6 km/h (3 Bft)
09.06.2015 01:46 10,3 C 8,9 C 75 % 0 lf 1028,6 hPa 0,0 l/m 0 min 0 min 0 W/m 18,8 km/h (3 Bft)
09.06.2015 01:48 10,3 C 8,9 C 75 % 0 lf 1028,6 hPa 0,0 l/m 0 min 0 min 0 W/m 18,8 km/h (3 Bft)
09.06.2015 01:50 10,2 C 8,9 C 76 % 0 lf 1028,6 hPa 0,0 l/m 0 min 0 min 0 W/m 14,6 km/h (3 Bft)
09.06.2015 01:52 10,2 C 8,9 C 76 % 0 lf 1028,6 hPa 0,0 l/m 0 min 0 min 0 W/m 14,6 km/h (3 Bft)
09.06.2015 01:54 10,2 C 8,9 C 76 % 0 lf 1028,5 hPa 0,0 l/m 0 min 0 min 0 W/m 18,8 km/h (3 Bft)
09.06.2015 01:56 10,1 C 8,9 C 76 % 0 lf 1028,5 hPa 0,0 l/m 0 min 0 min 0 W/m 12,6 km/h (3 Bft)
09.06.2015 01:58 10,1 C 8,9 C 76 % 0 lf 1028,5 hPa 0,0 l/m 0 min 0 min 0 W/m 14,6 km/h (3 Bft)
09.06.2015 02:00 10,1 C 8,9 C 76 % 0 lf 1028,6 hPa 0,0 l/m 0 min 0 min 0 W/m 14,6 km/h (3 Bft)
09.06.2015 02:02 10,0 C 8,9 C 76 % 0 lf 1028,6 hPa 0,0 l/m 0 min 0 min 0 W/m 12,6 km/h (3 Bft)
09.06.2015 02:04 10,0 C 8,9 C 77 % 0 lf 1028,6 hPa 0,0 l/m 0 min 0 min 0 W/m 16,7 km/h (3 Bft)
09.06.2015 02:06 9,9 C 8,9 C 77 % 0 lf 1028,7 hPa 0,0 l/m 0 min 0 min 0 W/m 14,6 km/h (3 Bft)
09.06.2015 02:08 9,9 C 8,9 C 77 % 0 lf 1028,7 hPa 0,0 l/m 0 min 0 min 0 W/m 12,6 km/h (3 Bft)
09.06.2015 02:10 9,9 C 8,9 C 77 % 0 lf 1028,7 hPa 0,0 l/m 0 min 0 min 0 W/m 14,6 km/h (3 Bft)
09.06.2015 02:12 9,9 C 8,9 C 77 % 0 lf 1028,7 hPa 0,0 l/m 0 min 0 min 0 W/m 12,6 km/h (3 Bft)
09.06.2015 02:14 9,9 C 8,9 C 77 % 0 lf 1028,7 hPa 0,0 l/m 0 min 0 min 0 W/m 14,6 km/h (3 Bft)
09.06.2015 02:16 9,8 C 8,9 C 77 % 0 lf 1028,7 hPa 0,0 l/m 0 min 0 min 0 W/m 16,7 km/h (3 Bft)
09.06.2015 02:18 9,8 C 8,9 C 77 % 0 lf 1028,6 hPa 0,0 l/m 0 min 0 min 0 W/m 16,7 km/h (3 Bft)
09.06.2015 02:20 9,8 C 8,9 C 77 % 0 lf 1028,6 hPa 0,0 l/m 0 min 0 min 0 W/m 18,8 km/h (3 Bft)
09.06.2015 02:22 9,8 C 8,9 C 77 % 0 lf 1028,6 hPa 0,0 l/m 0 min 0 min 0 W/m 14,6 km/h (3 Bft)
09.06.2015 02:24 9,8 C 8,9 C 77 % 0 lf 1028,6 hPa 0,0 l/m 0 min 0 min 0 W/m 14,6 km/h (3 Bft)
09.06.2015 02:26 9,7 C 8,9 C 78 % 0 lf 1028,5 hPa 0,0 l/m 0 min 0 min 0 W/m 16,7 km/h (3 Bft)
09.06.2015 02:28 9,7 C 8,9 C 78 % 0 lf 1028,5 hPa 0,0 l/m 0 min 0 min 0 W/m 14,6 km/h (3 Bft)
09.06.2015 02:30 9,7 C 8,3 C 78 % 0 lf 1028,6 hPa 0,0 l/m 0 min 0 min 0 W/m 18,8 km/h (3 Bft)
09.06.2015 02:32 9,7 C 8,3 C 78 % 0 lf 1028,6 hPa 0,0 l/m 0 min 0 min 0 W/m 12,6 km/h (3 Bft)
09.06.2015 02:34 9,6 C 8,3 C 78 % 0 lf 1028,6 hPa 0,0 l/m 0 min 0 min 0 W/m 12,6 km/h (3 Bft)
09.06.2015 02:36 9,6 C 8,3 C 78 % 0 lf 1028,6 hPa 0,0 l/m 0 min 0 min 0 W/m 16,7 km/h (3 Bft)
09.06.2015 02:38 9,6 C 8,3 C 78 % 0 lf 1028,6 hPa 0,0 l/m 0 min 0 min 0 W/m 14,6 km/h (3 Bft)
09.06.2015 02:40 9,6 C 8,3 C 78 % 0 lf 1028,5 hPa 0,0 l/m 0 min 0 min 0 W/m 14,6 km/h (3 Bft)
09.06.2015 02:42 9,5 C 8,3 C 78 % 0 lf 1028,5 hPa 0,0 l/m 0 min 0 min 0 W/m 16,7 km/h (3 Bft)
09.06.2015 02:44 9,6 C 8,3 C 78 % 0 lf 1028,5 hPa 0,0 l/m 0 min 0 min 0 W/m 16,7 km/h (3 Bft)
09.06.2015 02:46 9,5 C 8,3 C 79 % 0 lf 1028,5 hPa 0,0 l/m 0 min 0 min 0 W/m 14,6 km/h (3 Bft)
09.06.2015 02:48 9,5 C 8,3 C 79 % 0 lf 1028,5 hPa 0,0 l/m 0 min 0 min 0 W/m 16,7 km/h (3 Bft)
09.06.2015 02:50 9,5 C 8,3 C 79 % 0 lf 1028,5 hPa 0,0 l/m 0 min 0 min 0 W/m 14,6 km/h (3 Bft)
09.06.2015 02:52 9,5 C 8,3 C 79 % 0 lf 1028,5 hPa 0,0 l/m 0 min 0 min 0 W/m 16,7 km/h (3 Bft)
09.06.2015 02:54 9,4 C 8,3 C 79 % 0 lf 1028,5 hPa 0,0 l/m 0 min 0 min 0 W/m 18,8 km/h (3 Bft)
09.06.2015 02:56 9,4 C 8,3 C 79 % 0 lf 1028,5 hPa 0,0 l/m 0 min 0 min 0 W/m 12,6 km/h (3 Bft)
09.06.2015 02:58 9,4 C 8,3 C 79 % 0 lf 1028,5 hPa 0,0 l/m 0 min 0 min 0 W/m 14,6 km/h (3 Bft)
09.06.2015 03:00 9,4 C 8,3 C 79 % 0 lf 1028,5 hPa 0,0 l/m 0 min 0 min 0 W/m 16,7 km/h (3 Bft)
09.06.2015 03:02 9,3 C 8,3 C 80 % 0 lf 1028,5 hPa 0,0 l/m 0 min 0 min 0 W/m 12,6 km/h (3 Bft)
09.06.2015 03:04 9,3 C 8,3 C 79 % 0 lf 1028,5 hPa 0,0 l/m 0 min 0 min 0 W/m 12,6 km/h (3 Bft)
09.06.2015 03:06 9,3 C 8,3 C 80 % 0 lf 1028,5 hPa 0,0 l/m 0 min 0 min 0 W/m 14,6 km/h (3 Bft)
09.06.2015 03:08 9,3 C 8,3 C 80 % 0 lf 1028,5 hPa 0,0 l/m 0 min 0 min 0 W/m 12,6 km/h (3 Bft)
09.06.2015 03:10 9,3 C 8,3 C 80 % 0 lf 1028,5 hPa 0,0 l/m 0 min 0 min 0 W/m 14,6 km/h (3 Bft)
09.06.2015 03:12 9,2 C 7,8 C 80 % 0 lf 1028,4 hPa 0,0 l/m 0 min 0 min 0 W/m 12,6 km/h (3 Bft)
09.06.2015 03:14 9,2 C 7,8 C 80 % 0 lf 1028,4 hPa 0,0 l/m 0 min 0 min 0 W/m 14,6 km/h (3 Bft)
09.06.2015 03:16 9,2 C 8,3 C 80 % 0 lf 1028,4 hPa 0,0 l/m 0 min 0 min 0 W/m 12,6 km/h (3 Bft)
09.06.2015 03:18 9,2 C 7,8 C 81 % 0 lf 1028,4 hPa 0,0 l/m 0 min 0 min 0 W/m 12,6 km/h (3 Bft)
09.06.2015 03:20 9,2 C 7,8 C 81 % 0 lf 1028,4 hPa 0,0 l/m 0 min 0 min 0 W/m 14,6 km/h (3 Bft)
09.06.2015 03:22 9,1 C 7,8 C 81 % 0 lf 1028,5 hPa 0,0 l/m 0 min 0 min 0 W/m 12,6 km/h (3 Bft)
09.06.2015 03:24 9,1 C 7,8 C 81 % 0 lf 1028,5 hPa 0,0 l/m 0 min 0 min 0 W/m 14,6 km/h (3 Bft)
09.06.2015 03:26 9,1 C 7,8 C 81 % 0 lf 1028,4 hPa 0,0 l/m 0 min 0 min 0 W/m 16,7 km/h (3 Bft)
09.06.2015 03:28 9,1 C 7,8 C 81 % 0 lf 1028,4 hPa 0,0 l/m 0 min 0 min 0 W/m 12,6 km/h (3 Bft)
09.06.2015 03:30 9,1 C 7,8 C 81 % 0 lf 1028,4 hPa 0,0 l/m 0 min 0 min 0 W/m 14,6 km/h (3 Bft)
09.06.2015 03:32 9,0 C 7,8 C 81 % 0 lf 1028,4 hPa 0,0 l/m 0 min 0 min 0 W/m 14,6 km/h (3 Bft)
09.06.2015 03:34 9,0 C 7,8 C 82 % 0 lf 1028,5 hPa 0,0 l/m 0 min 0 min 0 W/m 12,6 km/h (3 Bft)
09.06.2015 03:36 9,0 C 7,8 C 82 % 0 lf 1028,5 hPa 0,0 l/m 0 min 0 min 0 W/m 12,6 km/h (3 Bft)
09.06.2015 03:38 9,0 C 7,8 C 82 % 0 lf 1028,4 hPa 0,0 l/m 0 min 0 min 0 W/m 14,6 km/h (3 Bft)
09.06.2015 03:40 8,9 C 7,8 C 82 % 0 lf 1028,5 hPa 0,0 l/m 0 min 0 min 0 W/m 23,0 km/h (4 Bft)
09.06.2015 03:42 8,9 C 7,8 C 82 % 0 lf 1028,5 hPa 0,0 l/m 0 min 0 min 0 W/m 14,6 km/h (3 Bft)
09.06.2015 03:44 8,9 C 7,8 C 82 % 0 lf 1028,5 hPa 0,0 l/m 0 min 0 min 0 W/m 14,6 km/h (3 Bft)
09.06.2015 03:46 8,9 C 7,8 C 82 % 0 lf 1028,5 hPa 0,0 l/m 0 min 0 min 0 W/m 14,6 km/h (3 Bft)
09.06.2015 03:48 8,9 C 7,8 C 82 % 0 lf 1028,5 hPa 0,0 l/m 0 min 0 min 0 W/m 12,6 km/h (3 Bft)
09.06.2015 03:50 8,9 C 7,8 C 82 % 0 lf 1028,5 hPa 0,0 l/m 0 min 0 min 0 W/m 12,6 km/h (3 Bft)
09.06.2015 03:52 8,9 C 7,8 C 82 % 0 lf 1028,5 hPa 0,0 l/m 0 min 0 min 0 W/m 18,8 km/h (3 Bft)
09.06.2015 03:54 8,8 C 7,8 C 83 % 0 lf 1028,4 hPa 0,0 l/m 0 min 0 min 0 W/m 18,8 km/h (3 Bft)
09.06.2015 03:56 8,8 C 7,8 C 83 % 0 lf 1028,5 hPa 0,0 l/m 0 min 0 min 0 W/m 20,9 km/h (4 Bft)
09.06.2015 03:58 8,9 C 7,8 C 83 % 0 lf 1028,5 hPa 0,0 l/m 0 min 0 min 0 W/m 16,7 km/h (3 Bft)
09.06.2015 04:00 8,9 C 7,8 C 83 % 0 lf 1028,4 hPa 0,0 l/m 0 min 0 min 0 W/m 25,1 km/h (4 Bft)
09.06.2015 04:02 8,9 C 7,8 C 83 % 0 lf 1028,4 hPa 0,0 l/m 0 min 0 min 0 W/m 25,1 km/h (4 Bft)
09.06.2015 04:04 8,9 C 7,8 C 83 % 0 lf 1028,4 hPa 0,0 l/m 0 min 0 min 0 W/m 25,1 km/h (4 Bft)
09.06.2015 04:06 8,9 C 7,8 C 82 % 0 lf 1028,4 hPa 0,0 l/m 0 min 0 min 0 W/m 20,9 km/h (4 Bft)
09.06.2015 04:08 8,9 C 7,8 C 82 % 0 lf 1028,4 hPa 0,0 l/m 0 min 0 min 0 W/m 12,6 km/h (3 Bft)
09.06.2015 04:10 8,9 C 7,8 C 82 % 0 lf 1028,4 hPa 0,0 l/m 0 min 0 min 0 W/m 18,8 km/h (3 Bft)
09.06.2015 04:12 8,9 C 7,8 C 82 % 0 lf 1028,4 hPa 0,0 l/m 0 min 0 min 0 W/m 23,0 km/h (4 Bft)
09.06.2015 04:14 8,9 C 7,8 C 82 % 0 lf 1028,4 hPa 0,0 l/m 0 min 0 min 0 W/m 20,9 km/h (4 Bft)
09.06.2015 04:16 8,9 C 7,8 C 82 % 0 lf 1028,3 hPa 0,0 l/m 0 min 0 min 0 W/m 25,1 km/h (4 Bft)
09.06.2015 04:18 8,9 C 7,8 C 82 % 0 lf 1028,3 hPa 0,0 l/m 0 min 0 min 0 W/m 20,9 km/h (4 Bft)
09.06.2015 04:20 8,9 C 7,8 C 82 % 0 lf 1028,3 hPa 0,0 l/m 0 min 0 min 0 W/m 20,9 km/h (4 Bft)
09.06.2015 04:22 8,9 C 7,8 C 82 % 0 lf 1028,4 hPa 0,0 l/m 0 min 0 min 0 W/m 20,9 km/h (4 Bft)
09.06.2015 04:24 8,9 C 7,8 C 82 % 0 lf 1028,4 hPa 0,0 l/m 0 min 0 min 0 W/m 20,9 km/h (4 Bft)
09.06.2015 04:26 8,9 C 7,8 C 82 % 0 lf 1028,4 hPa 0,0 l/m 0 min 0 min 0 W/m 18,8 km/h (3 Bft)
09.06.2015 04:28 8,9 C 7,8 C 82 % 0 lf 1028,4 hPa 0,0 l/m 0 min 0 min 0 W/m 18,8 km/h (3 Bft)
09.06.2015 04:30 8,9 C 7,8 C 82 % 0 lf 1028,4 hPa 0,0 l/m 0 min 0 min 0 W/m 23,0 km/h (4 Bft)
09.06.2015 04:32 8,8 C 7,8 C 82 % 0 lf 1028,4 hPa 0,0 l/m 0 min 0 min 0 W/m 20,9 km/h (4 Bft)
09.06.2015 04:34 8,8 C 7,8 C 82 % 0 lf 1028,3 hPa 0,0 l/m 0 min 0 min 0 W/m 18,8 km/h (3 Bft)
09.06.2015 04:36 8,8 C 7,8 C 82 % 0 lf 1028,4 hPa 0,0 l/m 0 min 0 min 0 W/m 25,1 km/h (4 Bft)
09.06.2015 04:38 8,7 C 7,8 C 82 % 0 lf 1028,4 hPa 0,0 l/m 0 min 0 min 0 W/m 14,6 km/h (3 Bft)
09.06.2015 04:40 8,7 C 7,8 C 83 % 0 lf 1028,4 hPa 0,0 l/m 0 min 0 min 0 W/m 14,6 km/h (3 Bft)
09.06.2015 04:42 8,7 C 7,2 C 83 % 0 lf 1028,4 hPa 0,0 l/m 0 min 0 min 0 W/m 16,7 km/h (3 Bft)
09.06.2015 04:44 8,6 C 7,8 C 83 % 0 lf 1028,4 hPa 0,0 l/m 0 min 0 min 0 W/m 16,7 km/h (3 Bft)
09.06.2015 04:46 8,6 C 7,8 C 83 % 0 lf 1028,4 hPa 0,0 l/m 0 min 0 min 0 W/m 18,8 km/h (3 Bft)
09.06.2015 04:48 8,6 C 7,2 C 83 % 0 lf 1028,4 hPa 0,0 l/m 0 min 0 min 0 W/m 18,8 km/h (3 Bft)
09.06.2015 04:50 8,6 C 7,2 C 84 % 0 lf 1028,4 hPa 0,0 l/m 0 min 0 min 0 W/m 14,6 km/h (3 Bft)
09.06.2015 04:52 8,5 C 7,2 C 84 % 0 lf 1028,4 hPa 0,0 l/m 0 min 0 min 0 W/m 16,7 km/h (3 Bft)
09.06.2015 04:54 8,5 C 7,2 C 84 % 0 lf 1028,4 hPa 0,0 l/m 0 min 0 min 0 W/m 16,7 km/h (3 Bft)
09.06.2015 04:56 8,4 C 7,2 C 84 % 0 lf 1028,4 hPa 0,0 l/m 0 min 0 min 0 W/m 12,6 km/h (3 Bft)
09.06.2015 04:58 8,4 C 7,2 C 84 % 0 lf 1028,4 hPa 0,0 l/m 0 min 0 min 0 W/m 16,7 km/h (3 Bft)
09.06.2015 05:00 8,4 C 7,2 C 85 % 0 lf 1028,4 hPa 0,0 l/m 0 min 0 min 0 W/m 14,6 km/h (3 Bft)
09.06.2015 05:02 8,3 C 7,2 C 85 % 0 lf 1028,4 hPa 0,0 l/m 0 min 0 min 0 W/m 14,6 km/h (3 Bft)
09.06.2015 05:04 8,3 C 7,2 C 85 % 0 lf 1028,4 hPa 0,0 l/m 0 min 0 min 4 W/m 10,5 km/h (2 Bft)
09.06.2015 05:06 8,3 C 7,2 C 85 % 0 lf 1028,4 hPa 0,0 l/m 0 min 0 min 5 W/m 16,7 km/h (3 Bft)
09.06.2015 05:08 8,3 C 7,2 C 85 % 0 lf 1028,4 hPa 0,0 l/m 0 min 0 min 5 W/m 12,6 km/h (3 Bft)
09.06.2015 05:10 8,2 C 7,2 C 86 % 0 lf 1028,4 hPa 0,0 l/m 0 min 0 min 6 W/m 16,7 km/h (3 Bft)
09.06.2015 05:12 8,2 C 7,2 C 86 % 0 lf 1028,4 hPa 0,0 l/m 0 min 0 min 7 W/m 12,6 km/h (3 Bft)
09.06.2015 05:14 8,2 C 7,2 C 86 % 0 lf 1028,3 hPa 0,0 l/m 0 min 0 min 7 W/m 10,5 km/h (2 Bft)
09.06.2015 05:16 8,2 C 7,2 C 86 % 0 lf 1028,3 hPa 0,0 l/m 0 min 0 min 7 W/m 16,7 km/h (3 Bft)
09.06.2015 05:18 8,1 C 7,2 C 86 % 0 lf 1028,4 hPa 0,0 l/m 0 min 0 min 7 W/m 14,6 km/h (3 Bft)
09.06.2015 05:20 8,1 C 7,2 C 86 % 0 lf 1028,4 hPa 0,0 l/m 0 min 0 min 9 W/m 14,6 km/h (3 Bft)
09.06.2015 05:22 8,1 C 7,2 C 86 % 0 lf 1028,4 hPa 0,0 l/m 0 min 0 min 9 W/m 10,5 km/h (2 Bft)
09.06.2015 05:24 8,1 C 7,2 C 87 % 0 lf 1028,4 hPa 0,0 l/m 0 min 0 min 10 W/m 12,6 km/h (3 Bft)
09.06.2015 05:26 8,1 C 7,2 C 87 % 0 lf 1028,4 hPa 0,0 l/m 0 min 0 min 11 W/m 12,6 km/h (3 Bft)
09.06.2015 05:28 8,1 C 7,2 C 87 % 0 lf 1028,4 hPa 0,0 l/m 0 min 0 min 12 W/m 10,5 km/h (2 Bft)
09.06.2015 05:30 8,1 C 7,2 C 87 % 0 lf 1028,5 hPa 0,0 l/m 0 min 0 min 12 W/m 12,6 km/h (3 Bft)
09.06.2015 05:32 8,0 C 7,2 C 87 % 0 lf 1028,5 hPa 0,0 l/m 0 min 0 min 14 W/m 8,4 km/h (2 Bft)
09.06.2015 05:34 8,0 C 6,7 C 87 % 0 lf 1028,6 hPa 0,0 l/m 0 min 0 min 16 W/m 16,7 km/h (3 Bft)
09.06.2015 05:36 7,9 C 7,2 C 87 % 0 lf 1028,6 hPa 0,0 l/m 0 min 0 min 18 W/m 12,6 km/h (3 Bft)
09.06.2015 05:38 7,9 C 7,2 C 87 % 0 lf 1028,6 hPa 0,0 l/m 0 min 0 min 18 W/m 10,5 km/h (2 Bft)
09.06.2015 05:40 7,9 C 7,2 C 87 % 0 lf 1028,6 hPa 0,0 l/m 2 min 0 min 20 W/m 10,5 km/h (2 Bft)
09.06.2015 05:42 7,9 C 7,2 C 88 % 0 lf 1028,7 hPa 0,0 l/m 2 min 0 min 23 W/m 12,6 km/h (3 Bft)
09.06.2015 05:44 7,9 C 7,2 C 88 % 0 lf 1028,6 hPa 0,0 l/m 2 min 0 min 26 W/m 12,6 km/h (3 Bft)
09.06.2015 05:46 7,9 C 7,2 C 88 % 0 lf 1028,6 hPa 0,0 l/m 2 min 0 min 28 W/m 14,6 km/h (3 Bft)
09.06.2015 05:48 7,9 C 7,2 C 88 % 0 lf 1028,6 hPa 0,0 l/m 2 min 0 min 30 W/m 12,6 km/h (3 Bft)
09.06.2015 05:50 7,9 C 7,2 C 88 % 0 lf 1028,6 hPa 0,0 l/m 2 min 0 min 33 W/m 14,6 km/h (3 Bft)
09.06.2015 05:52 7,9 C 7,2 C 88 % 0 lf 1028,6 hPa 0,0 l/m 2 min 0 min 35 W/m 14,6 km/h (3 Bft)
09.06.2015 05:54 7,9 C 7,2 C 88 % 0 lf 1028,6 hPa 0,0 l/m 2 min 0 min 37 W/m 12,6 km/h (3 Bft)
09.06.2015 05:56 8,0 C 7,2 C 88 % 0 lf 1028,7 hPa 0,0 l/m 2 min 0 min 39 W/m 12,6 km/h (3 Bft)
09.06.2015 05:58 8,0 C 7,2 C 88 % 0 lf 1028,7 hPa 0,0 l/m 2 min 0 min 40 W/m 14,6 km/h (3 Bft)
09.06.2015 06:00 8,0 C 7,2 C 88 % 0 lf 1028,7 hPa 0,0 l/m 2 min 0 min 40 W/m 16,7 km/h (3 Bft)
09.06.2015 06:02 8,0 C 7,2 C 88 % 0 lf 1028,6 hPa 0,0 l/m 2 min 0 min 40 W/m 14,6 km/h (3 Bft)
09.06.2015 06:06 8,1 C 7,2 C 88 % 0 lf 1028,7 hPa 0,0 l/m 0 min 0 min 42 W/m 14,6 km/h (3 Bft)
09.06.2015 06:08 8,1 C 7,2 C 88 % 0 lf 1028,7 hPa 0,0 l/m 2 min 0 min 46 W/m 14,6 km/h (3 Bft)
09.06.2015 06:10 8,1 C 7,2 C 88 % 0 lf 1028,7 hPa 0,0 l/m 0 min 0 min 46 W/m 14,6 km/h (3 Bft)
09.06.2015 06:12 8,1 C 7,2 C 88 % 0 lf 1028,7 hPa 0,0 l/m 0 min 0 min 47 W/m 14,6 km/h (3 Bft)
09.06.2015 06:14 8,1 C 7,2 C 88 % 0 lf 1028,7 hPa 0,0 l/m 0 min 0 min 46 W/m 16,7 km/h (3 Bft)
09.06.2015 06:16 8,1 C 7,2 C 88 % 0 lf 1028,7 hPa 0,0 l/m 0 min 0 min 46 W/m 18,8 km/h (3 Bft)
09.06.2015 06:18 8,1 C 7,2 C 87 % 0 lf 1028,7 hPa 0,0 l/m 0 min 0 min 47 W/m 14,6 km/h (3 Bft)
09.06.2015 06:20 8,1 C 7,2 C 88 % 0 lf 1028,6 hPa 0,0 l/m 0 min 0 min 49 W/m 14,6 km/h (3 Bft)
09.06.2015 06:22 8,1 C 7,2 C 87 % 0 lf 1028,6 hPa 0,0 l/m 0 min 0 min 49 W/m 16,7 km/h (3 Bft)
09.06.2015 06:24 8,1 C 7,2 C 87 % 0 lf 1028,7 hPa 0,0 l/m 0 min 0 min 51 W/m 14,6 km/h (3 Bft)
09.06.2015 06:26 8,1 C 7,2 C 87 % 0 lf 1028,7 hPa 0,0 l/m 0 min 0 min 55 W/m 14,6 km/h (3 Bft)
09.06.2015 06:28 8,1 C 7,2 C 87 % 0 lf 1028,7 hPa 0,0 l/m 0 min 0 min 58 W/m 14,6 km/h (3 Bft)
09.06.2015 06:30 8,2 C 7,2 C 87 % 0 lf 1028,7 hPa 0,0 l/m 0 min 0 min 59 W/m 12,6 km/h (3 Bft)
09.06.2015 06:32 8,2 C 7,2 C 87 % 0 lf 1028,8 hPa 0,0 l/m 0 min 0 min 58 W/m 12,6 km/h (3 Bft)
09.06.2015 06:34 8,2 C 7,2 C 87 % 0 lf 1028,8 hPa 0,0 l/m 0 min 0 min 62 W/m 16,7 km/h (3 Bft)
09.06.2015 06:36 8,2 C 7,2 C 87 % 0 lf 1028,8 hPa 0,0 l/m 0 min 0 min 71 W/m 14,6 km/h (3 Bft)
09.06.2015 06:38 8,2 C 7,2 C 87 % 0 lf 1028,8 hPa 0,0 l/m 0 min 0 min 78 W/m 14,6 km/h (3 Bft)
09.06.2015 06:40 8,2 C 7,2 C 87 % 0 lf 1028,8 hPa 0,0 l/m 2 min 0 min 84 W/m 12,6 km/h (3 Bft)
09.06.2015 06:42 8,2 C 7,2 C 87 % 0 lf 1028,8 hPa 0,0 l/m 2 min 0 min 89 W/m 23,0 km/h (4 Bft)
09.06.2015 06:44 8,3 C 7,2 C 87 % 0 lf 1028,8 hPa 0,0 l/m 0 min 0 min 77 W/m 16,7 km/h (3 Bft)
09.06.2015 06:46 8,3 C 7,2 C 87 % 0 lf 1028,7 hPa 0,0 l/m 0 min 0 min 78 W/m 14,6 km/h (3 Bft)
09.06.2015 06:48 8,3 C 7,2 C 87 % 0 lf 1028,8 hPa 0,0 l/m 0 min 0 min 90 W/m 14,6 km/h (3 Bft)
09.06.2015 06:50 8,3 C 7,8 C 87 % 0 lf 1028,8 hPa 0,0 l/m 0 min 0 min 85 W/m 16,7 km/h (3 Bft)
09.06.2015 06:52 8,4 C 7,8 C 87 % 0 lf 1028,8 hPa 0,0 l/m 0 min 0 min 80 W/m 16,7 km/h (3 Bft)
09.06.2015 06:54 8,4 C 7,8 C 87 % 0 lf 1028,8 hPa 0,0 l/m 0 min 0 min 83 W/m 16,7 km/h (3 Bft)
09.06.2015 06:56 8,4 C 7,8 C 87 % 0 lf 1028,7 hPa 0,0 l/m 0 min 0 min 88 W/m 18,8 km/h (3 Bft)
09.06.2015 06:58 8,4 C 7,8 C 87 % 0 lf 1028,8 hPa 0,0 l/m 0 min 0 min 96 W/m 16,7 km/h (3 Bft)
09.06.2015 07:00 8,4 C 7,8 C 87 % 0 lf 1028,8 hPa 0,0 l/m 2 min 0 min 115 W/m 18,8 km/h (3 Bft)
09.06.2015 07:02 8,5 C 7,8 C 86 % 0 lf 1028,8 hPa 0,0 l/m 2 min 0 min 135 W/m 20,9 km/h (4 Bft)
09.06.2015 07:04 8,6 C 7,8 C 86 % 0 lf 1028,8 hPa 0,0 l/m 2 min 0 min 139 W/m 18,8 km/h (3 Bft)
09.06.2015 07:06 8,6 C 7,8 C 86 % 0 lf 1028,7 hPa 0,0 l/m 2 min 0 min 123 W/m 18,8 km/h (3 Bft)
09.06.2015 07:08 8,7 C 7,8 C 86 % 0 lf 1028,7 hPa 0,0 l/m 2 min 0 min 131 W/m 18,8 km/h (3 Bft)
09.06.2015 07:10 8,7 C 7,8 C 86 % 0 lf 1028,7 hPa 0,0 l/m 2 min 0 min 141 W/m 20,9 km/h (4 Bft)
09.06.2015 07:12 8,7 C 8,3 C 86 % 0 lf 1028,7 hPa 0,0 l/m 2 min 0 min 147 W/m 20,9 km/h (4 Bft)
09.06.2015 07:14 8,8 C 8,3 C 85 % 0 lf 1028,7 hPa 0,0 l/m 2 min 0 min 156 W/m 18,8 km/h (3 Bft)
09.06.2015 07:16 8,8 C 8,3 C 85 % 0 lf 1028,7 hPa 0,0 l/m 2 min 0 min 159 W/m 18,8 km/h (3 Bft)
09.06.2015 07:18 8,9 C 8,3 C 85 % 0 lf 1028,6 hPa 0,0 l/m 2 min 0 min 168 W/m 23,0 km/h (4 Bft)
09.06.2015 07:20 8,9 C 8,3 C 85 % 0 lf 1028,7 hPa 0,0 l/m 2 min 0 min 180 W/m 27,2 km/h (4 Bft)
09.06.2015 07:22 9,0 C 8,3 C 85 % 0 lf 1028,6 hPa 0,0 l/m 2 min 0 min 194 W/m 16,7 km/h (3 Bft)
09.06.2015 07:24 9,0 C 8,3 C 84 % 0 lf 1028,7 hPa 0,0 l/m 2 min 0 min 188 W/m 23,0 km/h (4 Bft)
09.06.2015 07:26 9,1 C 8,3 C 84 % 0 lf 1028,7 hPa 0,0 l/m 2 min 0 min 219 W/m 18,8 km/h (3 Bft)
09.06.2015 07:28 9,2 C 8,9 C 84 % 0 lf 1028,6 hPa 0,0 l/m 2 min 0 min 277 W/m 18,8 km/h (3 Bft)
09.06.2015 07:30 9,2 C 8,9 C 84 % 0 lf 1028,6 hPa 0,0 l/m 2 min 0 min 305 W/m 16,7 km/h (3 Bft)
09.06.2015 07:32 9,4 C 8,9 C 84 % 0 lf 1028,7 hPa 0,0 l/m 2 min 0 min 317 W/m 20,9 km/h (4 Bft)
09.06.2015 07:34 9,4 C 8,9 C 83 % 0 lf 1028,6 hPa 0,0 l/m 2 min 0 min 316 W/m 18,8 km/h (3 Bft)
09.06.2015 07:36 9,6 C 8,9 C 83 % 0 lf 1028,8 hPa 0,0 l/m 2 min 0 min 293 W/m 29,3 km/h (5 Bft)
09.06.2015 07:38 9,7 C 9,4 C 83 % 0 lf 1028,7 hPa 0,0 l/m 2 min 0 min 292 W/m 14,6 km/h (3 Bft)
09.06.2015 07:40 9,7 C 9,4 C 82 % 0 lf 1028,8 hPa 0,0 l/m 2 min 0 min 319 W/m 23,0 km/h (4 Bft)
09.06.2015 07:42 9,8 C 9,4 C 82 % 0 lf 1028,7 hPa 0,0 l/m 2 min 0 min 338 W/m 20,9 km/h (4 Bft)
09.06.2015 07:44 9,9 C 9,4 C 82 % 0 lf 1028,8 hPa 0,0 l/m 2 min 0 min 308 W/m 23,0 km/h (4 Bft)
09.06.2015 07:46 10,0 C 9,4 C 81 % 0 lf 1028,8 hPa 0,0 l/m 2 min 0 min 269 W/m 27,2 km/h (4 Bft)
09.06.2015 07:48 10,0 C 9,4 C 81 % 0 lf 1028,7 hPa 0,0 l/m 2 min 0 min 272 W/m 23,0 km/h (4 Bft)
09.06.2015 07:50 10,1 C 9,4 C 80 % 0 lf 1028,8 hPa 0,0 l/m 2 min 0 min 285 W/m 29,3 km/h (5 Bft)
09.06.2015 07:52 10,1 C 9,4 C 80 % 0 lf 1028,8 hPa 0,0 l/m 2 min 0 min 324 W/m 23,0 km/h (4 Bft)
09.06.2015 07:54 10,2 C 10,0 C 80 % 0 lf 1028,9 hPa 0,0 l/m 2 min 0 min 290 W/m 27,2 km/h (4 Bft)
09.06.2015 07:56 10,3 C 10,0 C 80 % 0 lf 1028,8 hPa 0,0 l/m 2 min 0 min 237 W/m 27,2 km/h (4 Bft)
09.06.2015 07:58 10,3 C 10,0 C 80 % 0 lf 1028,9 hPa 0,0 l/m 2 min 0 min 240 W/m 29,3 km/h (5 Bft)
09.06.2015 08:00 10,3 C 10,0 C 79 % 0 lf 1028,9 hPa 0,0 l/m 2 min 0 min 229 W/m 23,0 km/h (4 Bft)
09.06.2015 08:02 10,3 C 10,0 C 79 % 0 lf 1029,1 hPa 0,0 l/m 2 min 0 min 243 W/m 20,9 km/h (4 Bft)
09.06.2015 08:04 10,3 C 10,0 C 79 % 0 lf 1028,9 hPa 0,0 l/m 2 min 0 min 256 W/m 25,1 km/h (4 Bft)
09.06.2015 08:06 10,4 C 10,0 C 79 % 0 lf 1028,8 hPa 0,0 l/m 2 min 0 min 267 W/m 29,3 km/h (5 Bft)
09.06.2015 08:08 10,4 C 10,0 C 79 % 0 lf 1028,8 hPa 0,0 l/m 2 min 0 min 293 W/m 31,4 km/h (5 Bft)
09.06.2015 08:10 10,6 C 10,0 C 79 % 0 lf 1028,9 hPa 0,0 l/m 2 min 0 min 312 W/m 23,0 km/h (4 Bft)
09.06.2015 08:12 10,7 C 10,0 C 78 % 0 lf 1028,9 hPa 0,0 l/m 2 min 0 min 335 W/m 29,3 km/h (5 Bft)
09.06.2015 08:14 10,7 C 10,0 C 77 % 0 lf 1028,9 hPa 0,0 l/m 2 min 0 min 358 W/m 29,3 km/h (5 Bft)
09.06.2015 08:16 10,8 C 10,0 C 77 % 0 lf 1029,0 hPa 0,0 l/m 2 min 0 min 394 W/m 29,3 km/h (5 Bft)
09.06.2015 08:18 10,9 C 10,6 C 77 % 0 lf 1028,9 hPa 0,0 l/m 2 min 0 min 444 W/m 23,0 km/h (4 Bft)
09.06.2015 08:20 11,0 C 10,6 C 77 % 0 lf 1028,9 hPa 0,0 l/m 2 min 0 min 432 W/m 31,4 km/h (5 Bft)
09.06.2015 08:22 11,1 C 10,6 C 76 % 0 lf 1028,9 hPa 0,0 l/m 2 min 0 min 400 W/m 20,9 km/h (4 Bft)
09.06.2015 08:24 11,2 C 10,6 C 77 % 0 lf 1028,9 hPa 0,0 l/m 2 min 0 min 362 W/m 27,2 km/h (4 Bft)
09.06.2015 08:26 11,3 C 10,6 C 76 % 0 lf 1028,9 hPa 0,0 l/m 2 min 0 min 275 W/m 25,1 km/h (4 Bft)
09.06.2015 08:28 11,3 C 10,6 C 75 % 0 lf 1028,9 hPa 0,0 l/m 2 min 0 min 286 W/m 25,1 km/h (4 Bft)
09.06.2015 08:30 11,3 C 10,6 C 75 % 0 lf 1028,9 hPa 0,0 l/m 2 min 0 min 308 W/m 25,1 km/h (4 Bft)
09.06.2015 08:32 11,3 C 10,6 C 76 % 0 lf 1029,0 hPa 0,0 l/m 2 min 0 min 343 W/m 25,1 km/h (4 Bft)
09.06.2015 08:34 11,3 C 10,6 C 75 % 0 lf 1029,0 hPa 0,0 l/m 2 min 0 min 394 W/m 27,2 km/h (4 Bft)
09.06.2015 08:36 11,4 C 10,6 C 76 % 0 lf 1029,1 hPa 0,0 l/m 2 min 0 min 379 W/m 25,1 km/h (4 Bft)
09.06.2015 08:38 11,4 C 10,6 C 75 % 0 lf 1029,1 hPa 0,0 l/m 2 min 0 min 374 W/m 29,3 km/h (5 Bft)
09.06.2015 08:40 11,5 C 10,6 C 75 % 0 lf 1029,0 hPa 0,0 l/m 2 min 0 min 427 W/m 23,0 km/h (4 Bft)
09.06.2015 08:42 11,6 C 11,1 C 75 % 0 lf 1029,1 hPa 0,0 l/m 2 min 0 min 462 W/m 20,9 km/h (4 Bft)
09.06.2015 08:44 11,7 C 11,1 C 75 % 0 lf 1029,0 hPa 0,0 l/m 2 min 0 min 511 W/m 29,3 km/h (5 Bft)
09.06.2015 08:46 11,8 C 11,1 C 74 % 0 lf 1029,0 hPa 0,0 l/m 2 min 0 min 571 W/m 29,3 km/h (5 Bft)
09.06.2015 08:48 11,9 C 11,1 C 74 % 0 lf 1029,1 hPa 0,0 l/m 2 min 0 min 577 W/m 39,7 km/h (6 Bft)
09.06.2015 08:50 11,9 C 11,7 C 73 % 0 lf 1029,1 hPa 0,0 l/m 2 min 0 min 564 W/m 35,6 km/h (5 Bft)
09.06.2015 08:52 12,1 C 11,7 C 73 % 0 lf 1029,2 hPa 0,0 l/m 2 min 0 min 535 W/m 25,1 km/h (4 Bft)
09.06.2015 08:54 12,3 C 11,7 C 73 % 0 lf 1029,1 hPa 0,0 l/m 2 min 0 min 592 W/m 20,9 km/h (4 Bft)
09.06.2015 08:56 12,4 C 12,2 C 72 % 0 lf 1029,0 hPa 0,0 l/m 2 min 0 min 592 W/m 29,3 km/h (5 Bft)
09.06.2015 08:58 12,5 C 12,2 C 72 % 0 lf 1029,1 hPa 0,0 l/m 2 min 0 min 527 W/m 16,7 km/h (3 Bft)
09.06.2015 09:00 12,6 C 12,2 C 71 % 0 lf 1029,2 hPa 0,0 l/m 2 min 0 min 380 W/m 23,0 km/h (4 Bft)
09.06.2015 09:02 12,5 C 11,7 C 71 % 0 lf 1029,2 hPa 0,0 l/m 2 min 0 min 254 W/m 25,1 km/h (4 Bft)
09.06.2015 09:04 12,4 C 11,7 C 71 % 0 lf 1029,2 hPa 0,0 l/m 0 min 0 min 232 W/m 27,2 km/h (4 Bft)
09.06.2015 09:06 12,3 C 11,7 C 71 % 0 lf 1029,2 hPa 0,0 l/m 2 min 0 min 447 W/m 25,1 km/h (4 Bft)
09.06.2015 09:08 12,1 C 11,7 C 71 % 0 lf 1029,3 hPa 0,0 l/m 2 min 0 min 441 W/m 25,1 km/h (4 Bft)
09.06.2015 09:10 12,1 C 11,7 C 72 % 0 lf 1029,3 hPa 0,0 l/m 2 min 0 min 446 W/m 23,0 km/h (4 Bft)
09.06.2015 09:12 12,0 C 11,7 C 72 % 0 lf 1029,4 hPa 0,0 l/m 2 min 0 min 490 W/m 29,3 km/h (5 Bft)
09.06.2015 09:14 11,9 C 11,7 C 72 % 0 lf 1029,3 hPa 0,0 l/m 2 min 0 min 490 W/m 25,1 km/h (4 Bft)
09.06.2015 09:16 11,8 C 11,7 C 72 % 0 lf 1029,3 hPa 0,0 l/m 2 min 0 min 502 W/m 25,1 km/h (4 Bft)
09.06.2015 09:18 11,9 C 11,7 C 72 % 0 lf 1029,3 hPa 0,0 l/m 2 min 0 min 505 W/m 20,9 km/h (4 Bft)
09.06.2015 09:20 12,1 C 12,2 C 73 % 0 lf 1029,3 hPa 0,0 l/m 2 min 0 min 719 W/m 23,0 km/h (4 Bft)
09.06.2015 09:22 12,3 C 12,2 C 72 % 0 lf 1029,5 hPa 0,0 l/m 2 min 0 min 726 W/m 25,1 km/h (4 Bft)
09.06.2015 09:24 12,4 C 12,2 C 71 % 0 lf 1029,4 hPa 0,0 l/m 2 min 0 min 719 W/m 23,0 km/h (4 Bft)
09.06.2015 09:26 12,4 C 12,2 C 71 % 0 lf 1029,3 hPa 0,0 l/m 2 min 0 min 724 W/m 27,2 km/h (4 Bft)
09.06.2015 09:28 12,3 C 11,7 C 70 % 0 lf 1029,4 hPa 0,0 l/m 2 min 0 min 538 W/m 31,4 km/h (5 Bft)
09.06.2015 09:30 12,4 C 12,2 C 72 % 0 lf 1029,3 hPa 0,0 l/m 2 min 0 min 331 W/m 27,2 km/h (4 Bft)
09.06.2015 09:32 12,5 C 12,2 C 72 % 0 lf 1029,3 hPa 0,0 l/m 2 min 0 min 305 W/m 20,9 km/h (4 Bft)
09.06.2015 09:34 12,4 C 12,2 C 71 % 0 lf 1029,2 hPa 0,0 l/m 0 min 0 min 243 W/m 20,9 km/h (4 Bft)
09.06.2015 09:36 12,3 C 12,2 C 71 % 0 lf 1029,3 hPa 0,0 l/m 2 min 0 min 556 W/m 31,4 km/h (5 Bft)
09.06.2015 09:38 12,4 C 12,2 C 72 % 0 lf 1029,4 hPa 0,0 l/m 2 min 0 min 311 W/m 20,9 km/h (4 Bft)
09.06.2015 09:40 12,4 C 12,2 C 71 % 0 lf 1029,3 hPa 0,0 l/m 0 min 0 min 283 W/m 25,1 km/h (4 Bft)
09.06.2015 09:42 12,2 C 11,7 C 70 % 0 lf 1029,3 hPa 0,0 l/m 0 min 0 min 294 W/m 25,1 km/h (4 Bft)
09.06.2015 09:44 12,2 C 12,2 C 72 % 0 lf 1029,2 hPa 0,0 l/m 0 min 0 min 250 W/m 20,9 km/h (4 Bft)
09.06.2015 09:46 12,3 C 12,2 C 72 % 0 lf 1029,2 hPa 0,0 l/m 2 min 0 min 765 W/m 20,9 km/h (4 Bft)
09.06.2015 09:48 12,4 C 12,2 C 71 % 0 lf 1029,3 hPa 0,0 l/m 2 min 0 min 727 W/m 25,1 km/h (4 Bft)
09.06.2015 09:50 12,6 C 12,8 C 71 % 0 lf 1029,2 hPa 0,0 l/m 2 min 0 min 442 W/m 29,3 km/h (5 Bft)
09.06.2015 09:52 12,8 C 12,8 C 70 % 0 lf 1029,2 hPa 0,0 l/m 2 min 0 min 728 W/m 35,6 km/h (5 Bft)
09.06.2015 09:54 12,8 C 12,8 C 70 % 0 lf 1029,2 hPa 0,0 l/m 2 min 0 min 759 W/m 33,5 km/h (5 Bft)
09.06.2015 09:56 12,8 C 13,3 C 70 % 0 lf 1029,1 hPa 0,0 l/m 2 min 0 min 762 W/m 25,1 km/h (4 Bft)
09.06.2015 09:58 12,9 C 13,9 C 70 % 0 lf 1029,2 hPa 0,0 l/m 2 min 0 min 771 W/m 23,0 km/h (4 Bft)
09.06.2015 10:00 13,0 C 14,4 C 70 % 0 lf 1029,2 hPa 0,0 l/m 2 min 0 min 772 W/m 29,3 km/h (5 Bft)
09.06.2015 10:02 12,9 C 15,0 C 69 % 0 lf 1029,2 hPa 0,0 l/m 2 min 0 min 759 W/m 33,5 km/h (5 Bft)
09.06.2015 10:04 12,9 C 13,9 C 69 % 0 lf 1029,3 hPa 0,0 l/m 2 min 0 min 498 W/m 25,1 km/h (4 Bft)
09.06.2015 10:06 12,9 C 14,4 C 70 % 0 lf 1029,3 hPa 0,0 l/m 2 min 0 min 347 W/m 25,1 km/h (4 Bft)
09.06.2015 10:08 12,9 C 13,9 C 70 % 0 lf 1029,3 hPa 0,0 l/m 2 min 0 min 614 W/m 27,2 km/h (4 Bft)
09.06.2015 10:10 12,9 C 14,4 C 69 % 0 lf 1029,3 hPa 0,0 l/m 0 min 0 min 296 W/m 31,4 km/h (5 Bft)
09.06.2015 10:12 12,9 C 14,4 C 70 % 0 lf 1029,3 hPa 0,0 l/m 2 min 0 min 674 W/m 29,3 km/h (5 Bft)
09.06.2015 10:14 13,0 C 13,3 C 69 % 0 lf 1029,4 hPa 0,0 l/m 2 min 0 min 330 W/m 31,4 km/h (5 Bft)
09.06.2015 10:16 12,8 C 13,9 C 69 % 0 lf 1029,3 hPa 0,0 l/m 0 min 0 min 225 W/m 27,2 km/h (4 Bft)
09.06.2015 10:18 12,9 C 15,6 C 70 % 0 lf 1029,2 hPa 0,0 l/m 2 min 0 min 338 W/m 27,2 km/h (4 Bft)
09.06.2015 10:20 13,1 C 16,1 C 69 % 0 lf 1029,2 hPa 0,0 l/m 2 min 0 min 786 W/m 29,3 km/h (5 Bft)
09.06.2015 10:22 13,3 C 16,7 C 69 % 0 lf 1029,3 hPa 0,0 l/m 2 min 0 min 843 W/m 29,3 km/h (5 Bft)
09.06.2015 10:24 13,4 C 15,6 C 68 % 0 lf 1029,3 hPa 0,0 l/m 2 min 0 min 518 W/m 33,5 km/h (5 Bft)
09.06.2015 10:26 13,3 C 14,4 C 67 % 0 lf 1029,4 hPa 0,0 l/m 2 min 0 min 369 W/m 31,4 km/h (5 Bft)
09.06.2015 10:28 13,2 C 13,9 C 68 % 0 lf 1029,4 hPa 0,0 l/m 2 min 0 min 347 W/m 29,3 km/h (5 Bft)
09.06.2015 10:30 13,1 C 14,4 C 68 % 0 lf 1029,4 hPa 0,0 l/m 0 min 0 min 332 W/m 25,1 km/h (4 Bft)
09.06.2015 10:32 13,1 C 14,4 C 68 % 0 lf 1029,4 hPa 0,0 l/m 2 min 0 min 811 W/m 23,0 km/h (4 Bft)
09.06.2015 10:34 13,1 C 13,3 C 67 % 0 lf 1029,3 hPa 0,0 l/m 0 min 0 min 298 W/m 31,4 km/h (5 Bft)
09.06.2015 10:36 13,0 C 13,3 C 68 % 0 lf 1029,3 hPa 0,0 l/m 0 min 0 min 255 W/m 33,5 km/h (5 Bft)
09.06.2015 10:38 12,9 C 12,8 C 68 % 0 lf 1029,3 hPa 0,0 l/m 0 min 0 min 314 W/m 31,4 km/h (5 Bft)
09.06.2015 10:40 12,9 C 13,3 C 69 % 0 lf 1029,3 hPa 0,0 l/m 0 min 0 min 322 W/m 29,3 km/h (5 Bft)
09.06.2015 10:42 13,0 C 13,3 C 68 % 0 lf 1029,2 hPa 0,0 l/m 0 min 0 min 322 W/m 29,3 km/h (5 Bft)
09.06.2015 10:44 13,0 C 12,8 C 68 % 0 lf 1029,3 hPa 0,0 l/m 0 min 0 min 277 W/m 18,8 km/h (3 Bft)
09.06.2015 10:46 13,0 C 12,8 C 68 % 0 lf 1029,3 hPa 0,0 l/m 0 min 0 min 288 W/m 27,2 km/h (4 Bft)
09.06.2015 10:48 13,0 C 13,3 C 68 % 0 lf 1029,4 hPa 0,0 l/m 2 min 0 min 388 W/m 23,0 km/h (4 Bft)
09.06.2015 10:50 13,1 C 13,3 C 68 % 0 lf 1029,4 hPa 0,0 l/m 2 min 0 min 418 W/m 29,3 km/h (5 Bft)
09.06.2015 10:52 13,1 C 13,3 C 67 % 0 lf 1029,3 hPa 0,0 l/m 0 min 0 min 299 W/m 25,1 km/h (4 Bft)
09.06.2015 10:54 13,2 C 13,3 C 68 % 0 lf 1029,3 hPa 0,0 l/m 0 min 0 min 275 W/m 20,9 km/h (4 Bft)
09.06.2015 10:56 13,4 C 14,4 C 69 % 0 lf 1029,3 hPa 0,0 l/m 0 min 0 min 283 W/m 27,2 km/h (4 Bft)
09.06.2015 10:58 13,6 C 15,0 C 67 % 0 lf 1029,2 hPa 0,0 l/m 2 min 0 min 701 W/m 25,1 km/h (4 Bft)
09.06.2015 11:00 13,6 C 15,0 C 66 % 0 lf 1029,2 hPa 0,0 l/m 2 min 0 min 417 W/m 29,3 km/h (5 Bft)
09.06.2015 11:02 13,6 C 14,4 C 66 % 0 lf 1029,2 hPa 0,0 l/m 2 min 0 min 467 W/m 29,3 km/h (5 Bft)
09.06.2015 11:04 13,6 C 13,9 C 65 % 0 lf 1029,3 hPa 0,0 l/m 0 min 0 min 328 W/m 23,0 km/h (4 Bft)
09.06.2015 11:06 13,6 C 15,6 C 67 % 0 lf 1029,2 hPa 0,0 l/m 2 min 0 min 493 W/m 16,7 km/h (3 Bft)
09.06.2015 11:08 13,8 C 16,1 C 65 % 0 lf 1029,2 hPa 0,0 l/m 2 min 0 min 900 W/m 20,9 km/h (4 Bft)
09.06.2015 11:10 14,2 C 17,2 C 65 % 0 lf 1029,2 hPa 0,0 l/m 2 min 0 min 909 W/m 27,2 km/h (4 Bft)
09.06.2015 11:12 14,2 C 17,8 C 65 % 0 lf 1029,2 hPa 0,0 l/m 2 min 0 min 961 W/m 33,5 km/h (5 Bft)
09.06.2015 11:14 14,5 C 17,2 C 65 % 0 lf 1029,2 hPa 0,0 l/m 2 min 0 min 965 W/m 31,4 km/h (5 Bft)
09.06.2015 11:16 14,5 C 15,6 C 63 % 0 lf 1029,3 hPa 0,0 l/m 0 min 0 min 256 W/m 33,5 km/h (5 Bft)
09.06.2015 11:18 14,2 C 14,4 C 63 % 0 lf 1029,3 hPa 0,0 l/m 0 min 0 min 259 W/m 20,9 km/h (4 Bft)
09.06.2015 11:20 13,9 C 13,9 C 64 % 0 lf 1029,2 hPa 0,0 l/m 0 min 0 min 290 W/m 25,1 km/h (4 Bft)
09.06.2015 11:22 13,7 C 13,3 C 64 % 0 lf 1029,3 hPa 0,0 l/m 0 min 0 min 281 W/m 33,5 km/h (5 Bft)
09.06.2015 11:24 13,5 C 13,9 C 64 % 0 lf 1029,3 hPa 0,0 l/m 0 min 0 min 272 W/m 29,3 km/h (5 Bft)
09.06.2015 11:26 13,4 C 13,9 C 65 % 0 lf 1029,2 hPa 0,0 l/m 0 min 0 min 251 W/m 23,0 km/h (4 Bft)
09.06.2015 11:28 13,4 C 13,3 C 65 % 0 lf 1029,1 hPa 0,0 l/m 0 min 0 min 241 W/m 25,1 km/h (4 Bft)
09.06.2015 11:30 13,4 C 14,4 C 65 % 0 lf 1029,2 hPa 0,0 l/m 0 min 0 min 274 W/m 18,8 km/h (3 Bft)
09.06.2015 11:32 13,7 C 14,4 C 66 % 0 lf 1029,2 hPa 0,0 l/m 0 min 0 min 286 W/m 25,1 km/h (4 Bft)
09.06.2015 11:34 13,9 C 14,4 C 65 % 0 lf 1029,1 hPa 0,0 l/m 0 min 0 min 292 W/m 18,8 km/h (3 Bft)
09.06.2015 11:36 14,2 C 14,4 C 66 % 0 lf 1029,1 hPa 0,0 l/m 0 min 0 min 273 W/m 20,9 km/h (4 Bft)
09.06.2015 11:38 14,2 C 14,4 C 64 % 0 lf 1029,1 hPa 0,0 l/m 0 min 0 min 293 W/m 29,3 km/h (5 Bft)
09.06.2015 11:40 14,3 C 15,6 C 64 % 0 lf 1029,1 hPa 0,0 l/m 0 min 0 min 316 W/m 18,8 km/h (3 Bft)
09.06.2015 11:42 14,4 C 15,0 C 63 % 0 lf 1029,2 hPa 0,0 l/m 0 min 0 min 312 W/m 20,9 km/h (4 Bft)
09.06.2015 11:44 14,2 C 14,4 C 63 % 0 lf 1029,1 hPa 0,0 l/m 0 min 0 min 295 W/m 27,2 km/h (4 Bft)
09.06.2015 11:46 14,2 C 14,4 C 64 % 0 lf 1029,1 hPa 0,0 l/m 0 min 0 min 311 W/m 27,2 km/h (4 Bft)
09.06.2015 11:48 14,1 C 13,9 C 64 % 0 lf 1029,0 hPa 0,0 l/m 0 min 0 min 305 W/m 20,9 km/h (4 Bft)
09.06.2015 11:50 14,0 C 13,9 C 64 % 0 lf 1029,2 hPa 0,0 l/m 0 min 0 min 292 W/m 25,1 km/h (4 Bft)
09.06.2015 11:52 13,9 C 13,9 C 64 % 0 lf 1029,1 hPa 0,0 l/m 0 min 0 min 295 W/m 23,0 km/h (4 Bft)
09.06.2015 11:54 13,8 C 13,9 C 64 % 0 lf 1029,1 hPa 0,0 l/m 0 min 0 min 318 W/m 23,0 km/h (4 Bft)
09.06.2015 11:56 13,9 C 14,4 C 65 % 0 lf 1029,1 hPa 0,0 l/m 0 min 0 min 355 W/m 18,8 km/h (3 Bft)
09.06.2015 11:58 14,1 C 14,4 C 64 % 0 lf 1028,9 hPa 0,0 l/m 0 min 0 min 368 W/m 16,7 km/h (3 Bft)
09.06.2015 12:00 14,2 C 14,4 C 64 % 0 lf 1029,0 hPa 0,0 l/m 0 min 0 min 329 W/m 23,0 km/h (4 Bft)
09.06.2015 12:02 14,2 C 13,9 C 63 % 0 lf 1029,0 hPa 0,0 l/m 0 min 0 min 321 W/m 25,1 km/h (4 Bft)
09.06.2015 12:06 14,2 C 15,0 C 63 % 0 lf 1028,9 hPa 0,0 l/m 0 min 0 min 344 W/m 29,3 km/h (5 Bft)
09.06.2015 12:08 14,3 C 16,7 C 65 % 0 lf 1029,0 hPa 0,0 l/m 0 min 0 min 366 W/m 29,3 km/h (5 Bft)
09.06.2015 12:10 14,5 C 16,1 C 63 % 0 lf 1029,0 hPa 0,0 l/m 0 min 0 min 406 W/m 27,2 km/h (4 Bft)
09.06.2015 12:12 14,4 C 15,6 C 62 % 0 lf 1029,1 hPa 0,0 l/m 2 min 0 min 421 W/m 29,3 km/h (5 Bft)
09.06.2015 12:14 14,5 C 17,8 C 63 % 0 lf 1029,0 hPa 0,0 l/m 2 min 0 min 816 W/m 18,8 km/h (3 Bft)
09.06.2015 12:16 14,7 C 16,7 C 62 % 0 lf 1028,9 hPa 0,0 l/m 2 min 0 min 898 W/m 29,3 km/h (5 Bft)
09.06.2015 12:18 14,7 C 17,8 C 62 % 0 lf 1028,9 hPa 0,0 l/m 2 min 0 min 431 W/m 23,0 km/h (4 Bft)
09.06.2015 12:20 14,9 C 17,2 C 63 % 0 lf 1029,0 hPa 0,0 l/m 2 min 0 min 455 W/m 33,5 km/h (5 Bft)
09.06.2015 12:22 14,9 C 16,7 C 61 % 0 lf 1028,8 hPa 0,0 l/m 2 min 0 min 660 W/m 29,3 km/h (5 Bft)
09.06.2015 12:24 14,9 C 15,6 C 61 % 0 lf 1028,8 hPa 0,0 l/m 0 min 0 min 380 W/m 35,6 km/h (5 Bft)
09.06.2015 12:26 14,8 C 15,6 C 62 % 0 lf 1028,9 hPa 0,0 l/m 0 min 0 min 362 W/m 27,2 km/h (4 Bft)
09.06.2015 12:28 14,9 C 16,1 C 63 % 0 lf 1028,8 hPa 0,0 l/m 2 min 0 min 416 W/m 29,3 km/h (5 Bft)
09.06.2015 12:30 15,2 C 16,1 C 62 % 0 lf 1028,9 hPa 0,0 l/m 0 min 0 min 413 W/m 25,1 km/h (4 Bft)
09.06.2015 12:32 15,1 C 15,0 C 61 % 0 lf 1028,8 hPa 0,0 l/m 0 min 0 min 373 W/m 31,4 km/h (5 Bft)
09.06.2015 12:34 14,8 C 15,0 C 61 % 0 lf 1028,9 hPa 0,0 l/m 0 min 0 min 332 W/m 23,0 km/h (4 Bft)
09.06.2015 12:36 14,7 C 16,7 C 62 % 0 lf 1028,8 hPa 0,0 l/m 0 min 0 min 343 W/m 20,9 km/h (4 Bft)
09.06.2015 12:38 14,9 C 17,8 C 63 % 0 lf 1028,8 hPa 0,0 l/m 2 min 0 min 764 W/m 27,2 km/h (4 Bft)
09.06.2015 12:40 15,4 C 18,9 C 62 % 0 lf 1028,8 hPa 0,0 l/m 2 min 0 min 1104 W/m 31,4 km/h (5 Bft)
09.06.2015 12:42 15,8 C 20,0 C 60 % 0 lf 1028,8 hPa 0,0 l/m 2 min 0 min 1108 W/m 31,4 km/h (5 Bft)
09.06.2015 12:44 15,9 C 19,4 C 59 % 0 lf 1028,8 hPa 0,0 l/m 2 min 0 min 1110 W/m 25,1 km/h (4 Bft)
09.06.2015 12:46 15,8 C 18,3 C 60 % 0 lf 1028,7 hPa 0,0 l/m 2 min 0 min 938 W/m 23,0 km/h (4 Bft)
09.06.2015 12:48 15,7 C 17,2 C 59 % 0 lf 1028,7 hPa 0,0 l/m 2 min 0 min 1026 W/m 31,4 km/h (5 Bft)
09.06.2015 12:50 15,7 C 17,2 C 60 % 0 lf 1028,7 hPa 0,0 l/m 2 min 0 min 856 W/m 25,1 km/h (4 Bft)
09.06.2015 12:52 15,7 C 16,7 C 60 % 0 lf 1028,9 hPa 0,0 l/m 2 min 0 min 937 W/m 35,6 km/h (5 Bft)
09.06.2015 12:54 15,6 C 16,7 C 58 % 0 lf 1028,7 hPa 0,0 l/m 2 min 0 min 954 W/m 31,4 km/h (5 Bft)
09.06.2015 12:56 15,6 C 16,7 C 58 % 0 lf 1028,6 hPa 0,0 l/m 2 min 0 min 1012 W/m 31,4 km/h (5 Bft)
09.06.2015 12:58 15,7 C 16,7 C 60 % 0 lf 1028,6 hPa 0,0 l/m 2 min 0 min 1061 W/m 20,9 km/h (4 Bft)
09.06.2015 13:00 15,8 C 16,7 C 59 % 0 lf 1028,6 hPa 0,0 l/m 2 min 0 min 1098 W/m 23,0 km/h (4 Bft)
09.06.2015 13:02 15,8 C 16,1 C 60 % 0 lf 1028,6 hPa 0,0 l/m 2 min 0 min 628 W/m 23,0 km/h (4 Bft)
09.06.2015 13:04 15,7 C 15,6 C 59 % 0 lf 1028,6 hPa 0,0 l/m 0 min 0 min 315 W/m 23,0 km/h (4 Bft)
09.06.2015 13:06 15,4 C 15,0 C 60 % 0 lf 1028,8 hPa 0,0 l/m 0 min 0 min 300 W/m 25,1 km/h (4 Bft)
09.06.2015 13:08 15,3 C 15,6 C 62 % 0 lf 1028,7 hPa 0,0 l/m 0 min 0 min 298 W/m 25,1 km/h (4 Bft)
09.06.2015 13:10 15,3 C 15,6 C 59 % 0 lf 1028,7 hPa 0,0 l/m 0 min 0 min 316 W/m 23,0 km/h (4 Bft)
09.06.2015 13:12 15,3 C 17,2 C 60 % 0 lf 1028,6 hPa 0,0 l/m 0 min 0 min 317 W/m 16,7 km/h (3 Bft)
09.06.2015 13:14 15,4 C 18,9 C 59 % 0 lf 1028,6 hPa 0,0 l/m 2 min 0 min 486 W/m 25,1 km/h (4 Bft)
09.06.2015 13:16 15,6 C 18,9 C 59 % 0 lf 1028,5 hPa 0,0 l/m 2 min 0 min 1088 W/m 25,1 km/h (4 Bft)
09.06.2015 13:18 15,7 C 18,3 C 60 % 0 lf 1028,5 hPa 0,0 l/m 2 min 0 min 1071 W/m 35,6 km/h (5 Bft)
09.06.2015 13:20 15,9 C 17,8 C 60 % 0 lf 1028,5 hPa 0,0 l/m 2 min 0 min 1127 W/m 31,4 km/h (5 Bft)
09.06.2015 13:22 15,9 C 16,1 C 57 % 0 lf 1028,5 hPa 0,0 l/m 2 min 0 min 509 W/m 27,2 km/h (4 Bft)
09.06.2015 13:24 15,7 C 16,1 C 59 % 0 lf 1028,4 hPa 0,0 l/m 2 min 0 min 478 W/m 18,8 km/h (3 Bft)
09.06.2015 13:26 15,7 C 16,7 C 58 % 0 lf 1028,4 hPa 0,0 l/m 2 min 0 min 1163 W/m 23,0 km/h (4 Bft)
09.06.2015 13:28 15,8 C 16,7 C 58 % 0 lf 1028,4 hPa 0,0 l/m 2 min 0 min 627 W/m 20,9 km/h (4 Bft)
09.06.2015 13:30 15,7 C 16,7 C 59 % 0 lf 1028,4 hPa 0,0 l/m 0 min 0 min 414 W/m 25,1 km/h (4 Bft)
09.06.2015 13:32 15,7 C 16,1 C 58 % 0 lf 1028,4 hPa 0,0 l/m 0 min 0 min 336 W/m 20,9 km/h (4 Bft)
09.06.2015 13:34 15,8 C 16,7 C 58 % 0 lf 1028,4 hPa 0,0 l/m 2 min 0 min 955 W/m 29,3 km/h (5 Bft)
09.06.2015 13:36 16,2 C 17,2 C 59 % 0 lf 1028,3 hPa 0,0 l/m 2 min 0 min 1081 W/m 23,0 km/h (4 Bft)
09.06.2015 13:38 16,6 C 17,2 C 57 % 0 lf 1028,3 hPa 0,0 l/m 2 min 0 min 1054 W/m 23,0 km/h (4 Bft)
09.06.2015 13:40 16,6 C 17,2 C 56 % 0 lf 1028,3 hPa 0,0 l/m 2 min 0 min 1032 W/m 25,1 km/h (4 Bft)
09.06.2015 13:42 16,7 C 17,2 C 56 % 0 lf 1028,2 hPa 0,0 l/m 0 min 0 min 401 W/m 29,3 km/h (5 Bft)
09.06.2015 13:44 16,6 C 16,7 C 55 % 0 lf 1028,3 hPa 0,0 l/m 0 min 0 min 310 W/m 23,0 km/h (4 Bft)
09.06.2015 13:46 16,3 C 16,1 C 55 % 0 lf 1028,2 hPa 0,0 l/m 0 min 0 min 378 W/m 23,0 km/h (4 Bft)
09.06.2015 13:48 16,2 C 16,7 C 57 % 0 lf 1028,1 hPa 0,0 l/m 2 min 0 min 840 W/m 25,1 km/h (4 Bft)
09.06.2015 13:50 16,2 C 16,1 C 56 % 0 lf 1028,1 hPa 0,0 l/m 2 min 0 min 606 W/m 27,2 km/h (4 Bft)
09.06.2015 13:52 16,0 C 16,1 C 57 % 0 lf 1028,2 hPa 0,0 l/m 0 min 0 min 360 W/m 23,0 km/h (4 Bft)
09.06.2015 13:54 15,9 C 16,1 C 57 % 0 lf 1028,1 hPa 0,0 l/m 0 min 0 min 376 W/m 18,8 km/h (3 Bft)
09.06.2015 13:56 15,8 C 16,1 C 58 % 0 lf 1028,1 hPa 0,0 l/m 0 min 0 min 397 W/m 16,7 km/h (3 Bft)
09.06.2015 13:58 15,9 C 16,7 C 58 % 0 lf 1028,1 hPa 0,0 l/m 0 min 0 min 420 W/m 27,2 km/h (4 Bft)
09.06.2015 14:00 15,9 C 16,1 C 56 % 0 lf 1028,2 hPa 0,0 l/m 0 min 0 min 420 W/m 35,6 km/h (5 Bft)
09.06.2015 14:02 15,7 C 15,6 C 56 % 0 lf 1028,1 hPa 0,0 l/m 0 min 0 min 385 W/m 27,2 km/h (4 Bft)
09.06.2015 14:04 15,6 C 15,6 C 56 % 0 lf 1028,1 hPa 0,0 l/m 0 min 0 min 327 W/m 29,3 km/h (5 Bft)
09.06.2015 14:06 15,7 C 15,6 C 56 % 0 lf 1028,0 hPa 0,0 l/m 0 min 0 min 330 W/m 18,8 km/h (3 Bft)
09.06.2015 14:08 15,8 C 16,1 C 56 % 0 lf 1028,0 hPa 0,0 l/m 0 min 0 min 330 W/m 23,0 km/h (4 Bft)
09.06.2015 14:10 15,8 C 16,1 C 56 % 0 lf 1027,8 hPa 0,0 l/m 0 min 0 min 330 W/m 37,7 km/h (5 Bft)
09.06.2015 14:12 15,9 C 16,7 C 56 % 0 lf 1027,9 hPa 0,0 l/m 0 min 0 min 330 W/m 39,7 km/h (6 Bft)
09.06.2015 14:14 16,1 C 16,1 C 56 % 0 lf 1027,8 hPa 0,0 l/m 0 min 0 min 319 W/m 25,1 km/h (4 Bft)
09.06.2015 14:16 16,3 C 16,7 C 56 % 0 lf 1027,9 hPa 0,0 l/m 2 min 0 min 653 W/m 31,4 km/h (5 Bft)
09.06.2015 14:18 16,4 C 16,7 C 56 % 0 lf 1027,8 hPa 0,0 l/m 2 min 0 min 1005 W/m 23,0 km/h (4 Bft)
09.06.2015 14:20 17,1 C 17,8 C 56 % 0 lf 1027,6 hPa 0,0 l/m 2 min 0 min 1000 W/m 20,9 km/h (4 Bft)
09.06.2015 14:22 17,2 C 17,2 C 54 % 0 lf 1027,7 hPa 0,0 l/m 2 min 0 min 997 W/m 29,3 km/h (5 Bft)
09.06.2015 14:24 17,1 C 17,2 C 54 % 0 lf 1027,8 hPa 0,0 l/m 2 min 0 min 996 W/m 25,1 km/h (4 Bft)
09.06.2015 14:26 17,1 C 17,2 C 54 % 0 lf 1027,8 hPa 0,0 l/m 2 min 0 min 1023 W/m 31,4 km/h (5 Bft)
09.06.2015 14:28 17,0 C 16,7 C 53 % 0 lf 1027,8 hPa 0,0 l/m 2 min 0 min 1025 W/m 25,1 km/h (4 Bft)
09.06.2015 14:30 16,9 C 17,2 C 54 % 0 lf 1027,8 hPa 0,0 l/m 2 min 0 min 1045 W/m 20,9 km/h (4 Bft)
09.06.2015 14:32 17,0 C 17,2 C 55 % 0 lf 1027,8 hPa 0,0 l/m 2 min 0 min 876 W/m 23,0 km/h (4 Bft)
09.06.2015 14:34 17,1 C 17,2 C 54 % 0 lf 1027,8 hPa 0,0 l/m 2 min 0 min 418 W/m 29,3 km/h (5 Bft)
09.06.2015 14:36 16,9 C 16,7 C 53 % 0 lf 1027,8 hPa 0,0 l/m 0 min 0 min 355 W/m 29,3 km/h (5 Bft)
09.06.2015 14:38 16,9 C 17,2 C 54 % 0 lf 1027,7 hPa 0,0 l/m 2 min 0 min 591 W/m 23,0 km/h (4 Bft)
09.06.2015 14:40 17,2 C 17,8 C 56 % 0 lf 1027,9 hPa 0,0 l/m 2 min 0 min 996 W/m 31,4 km/h (5 Bft)
09.06.2015 14:42 17,5 C 17,8 C 54 % 0 lf 1027,7 hPa 0,0 l/m 2 min 0 min 996 W/m 27,2 km/h (4 Bft)
09.06.2015 14:44 17,5 C 17,2 C 53 % 0 lf 1027,7 hPa 0,0 l/m 2 min 0 min 1001 W/m 27,2 km/h (4 Bft)
09.06.2015 14:46 17,6 C 17,8 C 53 % 0 lf 1027,8 hPa 0,0 l/m 2 min 0 min 1028 W/m 31,4 km/h (5 Bft)
09.06.2015 14:48 17,5 C 17,8 C 53 % 0 lf 1027,7 hPa 0,0 l/m 2 min 0 min 1084 W/m 18,8 km/h (3 Bft)
09.06.2015 14:50 17,4 C 17,2 C 54 % 0 lf 1027,7 hPa 0,0 l/m 2 min 0 min 1102 W/m 16,7 km/h (3 Bft)
09.06.2015 14:52 17,3 C 17,2 C 52 % 0 lf 1027,6 hPa 0,0 l/m 0 min 0 min 351 W/m 29,3 km/h (5 Bft)
09.06.2015 14:54 17,2 C 16,7 C 52 % 0 lf 1027,7 hPa 0,0 l/m 0 min 0 min 325 W/m 27,2 km/h (4 Bft)
09.06.2015 14:56 17,1 C 16,7 C 52 % 0 lf 1027,7 hPa 0,0 l/m 0 min 0 min 402 W/m 31,4 km/h (5 Bft)
09.06.2015 14:58 16,8 C 16,7 C 53 % 0 lf 1027,7 hPa 0,0 l/m 2 min 0 min 409 W/m 25,1 km/h (4 Bft)
09.06.2015 15:00 16,7 C 16,7 C 54 % 0 lf 1027,7 hPa 0,0 l/m 0 min 0 min 363 W/m 23,0 km/h (4 Bft)
09.06.2015 15:02 16,6 C 16,7 C 53 % 0 lf 1027,8 hPa 0,0 l/m 2 min 0 min 696 W/m 27,2 km/h (4 Bft)
09.06.2015 15:04 16,6 C 16,7 C 54 % 0 lf 1027,7 hPa 0,0 l/m 2 min 0 min 1023 W/m 18,8 km/h (3 Bft)
09.06.2015 15:06 16,6 C 16,7 C 53 % 0 lf 1027,7 hPa 0,0 l/m 2 min 0 min 454 W/m 27,2 km/h (4 Bft)
09.06.2015 15:08 16,6 C 16,7 C 53 % 0 lf 1027,7 hPa 0,0 l/m 2 min 0 min 454 W/m 33,5 km/h (5 Bft)
09.06.2015 15:10 16,5 C 16,7 C 54 % 0 lf 1027,7 hPa 0,0 l/m 2 min 0 min 421 W/m 23,0 km/h (4 Bft)
09.06.2015 15:12 16,6 C 16,7 C 54 % 0 lf 1027,7 hPa 0,0 l/m 2 min 0 min 484 W/m 18,8 km/h (3 Bft)
09.06.2015 15:14 16,6 C 17,2 C 54 % 0 lf 1027,7 hPa 0,0 l/m 2 min 0 min 757 W/m 29,3 km/h (5 Bft)
09.06.2015 15:16 16,8 C 17,2 C 54 % 0 lf 1027,8 hPa 0,0 l/m 2 min 0 min 1060 W/m 27,2 km/h (4 Bft)
09.06.2015 15:18 17,1 C 18,3 C 55 % 0 lf 1027,8 hPa 0,0 l/m 2 min 0 min 1088 W/m 27,2 km/h (4 Bft)
09.06.2015 15:20 17,3 C 18,3 C 53 % 0 lf 1027,8 hPa 0,0 l/m 2 min 0 min 1099 W/m 33,5 km/h (5 Bft)
09.06.2015 15:22 17,4 C 18,3 C 53 % 0 lf 1027,8 hPa 0,0 l/m 2 min 0 min 1099 W/m 31,4 km/h (5 Bft)
09.06.2015 15:24 17,5 C 17,8 C 51 % 0 lf 1027,8 hPa 0,0 l/m 2 min 0 min 546 W/m 27,2 km/h (4 Bft)
09.06.2015 15:26 17,4 C 17,2 C 51 % 0 lf 1027,8 hPa 0,0 l/m 0 min 0 min 361 W/m 23,0 km/h (4 Bft)
09.06.2015 15:28 17,3 C 17,2 C 52 % 0 lf 1027,8 hPa 0,0 l/m 0 min 0 min 343 W/m 18,8 km/h (3 Bft)
09.06.2015 15:30 17,2 C 17,2 C 52 % 0 lf 1027,8 hPa 0,0 l/m 2 min 0 min 841 W/m 20,9 km/h (4 Bft)
09.06.2015 15:32 17,3 C 17,8 C 52 % 0 lf 1027,8 hPa 0,0 l/m 2 min 0 min 1000 W/m 23,0 km/h (4 Bft)
09.06.2015 15:34 17,2 C 17,2 C 52 % 0 lf 1027,7 hPa 0,0 l/m 0 min 0 min 373 W/m 29,3 km/h (5 Bft)
09.06.2015 15:36 17,0 C 16,7 C 53 % 0 lf 1027,8 hPa 0,0 l/m 0 min 0 min 323 W/m 25,1 km/h (4 Bft)
09.06.2015 15:38 16,9 C 17,2 C 55 % 0 lf 1027,8 hPa 0,0 l/m 0 min 0 min 362 W/m 20,9 km/h (4 Bft)
09.06.2015 15:40 16,8 C 17,2 C 53 % 0 lf 1027,8 hPa 0,0 l/m 2 min 0 min 388 W/m 27,2 km/h (4 Bft)
09.06.2015 15:42 16,8 C 17,2 C 54 % 0 lf 1027,7 hPa 0,0 l/m 0 min 0 min 381 W/m 27,2 km/h (4 Bft)
09.06.2015 15:44 16,8 C 16,7 C 53 % 0 lf 1027,8 hPa 0,0 l/m 0 min 0 min 333 W/m 25,1 km/h (4 Bft)
09.06.2015 15:46 16,7 C 16,7 C 53 % 0 lf 1027,8 hPa 0,0 l/m 0 min 0 min 352 W/m 25,1 km/h (4 Bft)
09.06.2015 15:48 16,7 C 16,7 C 54 % 0 lf 1027,8 hPa 0,0 l/m 0 min 0 min 352 W/m 31,4 km/h (5 Bft)
09.06.2015 15:50 16,8 C 17,2 C 54 % 0 lf 1027,8 hPa 0,0 l/m 2 min 0 min 924 W/m 20,9 km/h (4 Bft)
09.06.2015 15:52 17,0 C 17,8 C 54 % 0 lf 1027,8 hPa 0,0 l/m 2 min 0 min 950 W/m 29,3 km/h (5 Bft)
09.06.2015 15:54 16,9 C 17,2 C 52 % 0 lf 1027,7 hPa 0,0 l/m 2 min 0 min 905 W/m 25,1 km/h (4 Bft)
09.06.2015 15:56 16,9 C 17,2 C 53 % 0 lf 1027,7 hPa 0,0 l/m 2 min 0 min 903 W/m 18,8 km/h (3 Bft)
09.06.2015 15:58 17,1 C 17,8 C 53 % 0 lf 1027,7 hPa 0,0 l/m 2 min 0 min 753 W/m 18,8 km/h (3 Bft)
09.06.2015 16:00 17,2 C 17,2 C 53 % 0 lf 1027,7 hPa 0,0 l/m 0 min 0 min 300 W/m 25,1 km/h (4 Bft)
09.06.2015 16:02 17,2 C 17,8 C 52 % 0 lf 1027,7 hPa 0,0 l/m 2 min 0 min 593 W/m 25,1 km/h (4 Bft)
09.06.2015 16:04 17,4 C 18,3 C 53 % 0 lf 1027,7 hPa 0,0 l/m 2 min 0 min 869 W/m 27,2 km/h (4 Bft)
09.06.2015 16:06 17,7 C 18,9 C 52 % 0 lf 1027,5 hPa 0,0 l/m 2 min 0 min 903 W/m 27,2 km/h (4 Bft)
09.06.2015 16:08 17,8 C 18,3 C 51 % 0 lf 1027,6 hPa 0,0 l/m 2 min 0 min 902 W/m 31,4 km/h (5 Bft)
09.06.2015 16:10 17,7 C 17,8 C 51 % 0 lf 1027,7 hPa 0,0 l/m 2 min 0 min 737 W/m 33,5 km/h (5 Bft)
09.06.2015 16:12 17,7 C 17,2 C 51 % 0 lf 1027,6 hPa 0,0 l/m 0 min 0 min 302 W/m 25,1 km/h (4 Bft)
09.06.2015 16:14 17,5 C 16,7 C 50 % 0 lf 1027,6 hPa 0,0 l/m 0 min 0 min 327 W/m 27,2 km/h (4 Bft)
09.06.2015 16:16 17,3 C 19,4 C 51 % 0 lf 1027,5 hPa 0,0 l/m 2 min 0 min 530 W/m 27,2 km/h (4 Bft)
09.06.2015 16:18 17,3 C 20,0 C 51 % 0 lf 1027,5 hPa 0,0 l/m 2 min 0 min 854 W/m 29,3 km/h (5 Bft)
09.06.2015 16:20 17,3 C 21,1 C 52 % 0 lf 1027,6 hPa 0,0 l/m 2 min 0 min 812 W/m 35,6 km/h (5 Bft)
09.06.2015 16:22 17,4 C 21,7 C 52 % 0 lf 1027,5 hPa 0,0 l/m 2 min 0 min 760 W/m 23,0 km/h (4 Bft)
09.06.2015 16:24 17,4 C 22,2 C 52 % 0 lf 1027,5 hPa 0,0 l/m 2 min 0 min 817 W/m 27,2 km/h (4 Bft)
09.06.2015 16:26 17,3 C 22,2 C 52 % 0 lf 1027,4 hPa 0,0 l/m 2 min 0 min 838 W/m 33,5 km/h (5 Bft)
09.06.2015 16:28 17,3 C 22,2 C 52 % 0 lf 1027,5 hPa 0,0 l/m 2 min 0 min 864 W/m 25,1 km/h (4 Bft)
09.06.2015 16:30 17,4 C 22,8 C 52 % 0 lf 1027,6 hPa 0,0 l/m 2 min 0 min 861 W/m 31,4 km/h (5 Bft)
09.06.2015 16:32 17,6 C 21,7 C 51 % 0 lf 1027,5 hPa 0,0 l/m 2 min 0 min 896 W/m 25,1 km/h (4 Bft)
09.06.2015 16:34 17,6 C 22,2 C 51 % 0 lf 1027,6 hPa 0,0 l/m 2 min 0 min 899 W/m 29,3 km/h (5 Bft)
09.06.2015 16:36 17,5 C 22,2 C 52 % 0 lf 1027,6 hPa 0,0 l/m 2 min 0 min 895 W/m 25,1 km/h (4 Bft)
09.06.2015 16:38 17,6 C 20,0 C 51 % 0 lf 1027,5 hPa 0,0 l/m 2 min 0 min 566 W/m 20,9 km/h (4 Bft)
09.06.2015 16:40 17,6 C 21,7 C 51 % 0 lf 1027,5 hPa 0,0 l/m 2 min 0 min 491 W/m 23,0 km/h (4 Bft)
09.06.2015 16:42 17,6 C 20,6 C 51 % 0 lf 1027,6 hPa 0,0 l/m 2 min 0 min 861 W/m 31,4 km/h (5 Bft)
09.06.2015 16:44 17,5 C 21,7 C 51 % 0 lf 1027,5 hPa 0,0 l/m 2 min 0 min 849 W/m 20,9 km/h (4 Bft)
09.06.2015 16:46 17,6 C 21,1 C 52 % 0 lf 1027,6 hPa 0,0 l/m 2 min 0 min 846 W/m 35,6 km/h (5 Bft)
09.06.2015 16:48 17,6 C 19,4 C 51 % 0 lf 1027,6 hPa 0,0 l/m 2 min 0 min 382 W/m 27,2 km/h (4 Bft)
09.06.2015 16:50 17,5 C 18,9 C 51 % 0 lf 1027,6 hPa 0,0 l/m 2 min 0 min 339 W/m 29,3 km/h (5 Bft)
09.06.2015 16:52 17,3 C 17,8 C 51 % 0 lf 1027,6 hPa 0,0 l/m 0 min 0 min 281 W/m 31,4 km/h (5 Bft)
09.06.2015 16:54 17,2 C 18,9 C 52 % 0 lf 1027,5 hPa 0,0 l/m 0 min 0 min 254 W/m 18,8 km/h (3 Bft)
09.06.2015 16:56 17,2 C 20,0 C 52 % 0 lf 1027,6 hPa 0,0 l/m 2 min 0 min 699 W/m 25,1 km/h (4 Bft)
09.06.2015 16:58 17,2 C 21,1 C 52 % 0 lf 1027,6 hPa 0,0 l/m 2 min 0 min 728 W/m 25,1 km/h (4 Bft)
09.06.2015 17:00 17,3 C 22,2 C 52 % 0 lf 1027,5 hPa 0,0 l/m 2 min 0 min 768 W/m 25,1 km/h (4 Bft)
09.06.2015 17:02 17,5 C 22,2 C 52 % 0 lf 1027,5 hPa 0,0 l/m 2 min 0 min 796 W/m 31,4 km/h (5 Bft)
09.06.2015 17:04 17,8 C 21,7 C 52 % 0 lf 1027,6 hPa 0,0 l/m 2 min 0 min 826 W/m 27,2 km/h (4 Bft)
09.06.2015 17:06 17,9 C 20,0 C 51 % 0 lf 1027,3 hPa 0,0 l/m 2 min 0 min 333 W/m 27,2 km/h (4 Bft)
09.06.2015 17:08 17,8 C 17,8 C 50 % 0 lf 1027,4 hPa 0,0 l/m 0 min 0 min 250 W/m 29,3 km/h (5 Bft)
09.06.2015 17:10 17,7 C 17,2 C 51 % 0 lf 1027,3 hPa 0,0 l/m 0 min 0 min 218 W/m 25,1 km/h (4 Bft)
09.06.2015 17:12 17,7 C 16,7 C 51 % 0 lf 1027,3 hPa 0,0 l/m 0 min 0 min 201 W/m 20,9 km/h (4 Bft)
09.06.2015 17:14 17,5 C 16,7 C 51 % 0 lf 1027,4 hPa 0,0 l/m 0 min 0 min 199 W/m 27,2 km/h (4 Bft)
09.06.2015 17:16 17,5 C 16,7 C 51 % 0 lf 1027,3 hPa 0,0 l/m 2 min 0 min 575 W/m 23,0 km/h (4 Bft)
09.06.2015 17:18 17,4 C 16,7 C 52 % 0 lf 1027,3 hPa 0,0 l/m 2 min 0 min 649 W/m 23,0 km/h (4 Bft)
09.06.2015 17:20 17,4 C 16,7 C 52 % 0 lf 1027,2 hPa 0,0 l/m 2 min 0 min 652 W/m 25,1 km/h (4 Bft)
09.06.2015 17:22 17,5 C 16,7 C 52 % 0 lf 1027,2 hPa 0,0 l/m 2 min 0 min 702 W/m 23,0 km/h (4 Bft)
09.06.2015 17:24 17,5 C 17,2 C 51 % 0 lf 1027,2 hPa 0,0 l/m 2 min 0 min 746 W/m 37,7 km/h (5 Bft)
09.06.2015 17:26 17,6 C 17,2 C 51 % 0 lf 1027,2 hPa 0,0 l/m 2 min 0 min 746 W/m 35,6 km/h (5 Bft)
09.06.2015 17:28 17,5 C 16,7 C 51 % 0 lf 1027,3 hPa 0,0 l/m 2 min 0 min 570 W/m 31,4 km/h (5 Bft)
09.06.2015 17:30 17,4 C 16,7 C 51 % 0 lf 1027,3 hPa 0,0 l/m 0 min 0 min 271 W/m 33,5 km/h (5 Bft)
09.06.2015 17:32 17,3 C 16,7 C 52 % 0 lf 1027,2 hPa 0,0 l/m 0 min 0 min 268 W/m 29,3 km/h (5 Bft)
09.06.2015 17:34 17,2 C 16,7 C 52 % 0 lf 1027,2 hPa 0,0 l/m 2 min 0 min 580 W/m 29,3 km/h (5 Bft)
09.06.2015 17:36 17,2 C 16,7 C 52 % 0 lf 1027,2 hPa 0,0 l/m 2 min 0 min 630 W/m 25,1 km/h (4 Bft)
09.06.2015 17:38 17,2 C 16,7 C 52 % 0 lf 1027,2 hPa 0,0 l/m 2 min 0 min 653 W/m 18,8 km/h (3 Bft)
09.06.2015 17:40 17,2 C 16,7 C 51 % 0 lf 1027,2 hPa 0,0 l/m 2 min 0 min 427 W/m 29,3 km/h (5 Bft)
09.06.2015 17:42 17,2 C 16,7 C 51 % 0 lf 1027,2 hPa 0,0 l/m 2 min 0 min 592 W/m 27,2 km/h (4 Bft)
09.06.2015 17:44 17,2 C 16,7 C 51 % 0 lf 1027,2 hPa 0,0 l/m 2 min 0 min 485 W/m 20,9 km/h (4 Bft)
09.06.2015 17:46 17,2 C 16,7 C 52 % 0 lf 1027,1 hPa 0,0 l/m 2 min 0 min 418 W/m 31,4 km/h (5 Bft)
09.06.2015 17:48 17,2 C 16,7 C 52 % 0 lf 1027,2 hPa 0,0 l/m 2 min 0 min 380 W/m 18,8 km/h (3 Bft)
09.06.2015 17:50 17,3 C 16,7 C 51 % 0 lf 1027,2 hPa 0,0 l/m 0 min 0 min 159 W/m 18,8 km/h (3 Bft)
09.06.2015 17:52 17,3 C 16,7 C 51 % 0 lf 1027,2 hPa 0,0 l/m 2 min 0 min 508 W/m 25,1 km/h (4 Bft)
09.06.2015 17:54 17,3 C 16,7 C 52 % 0 lf 1027,2 hPa 0,0 l/m 2 min 0 min 508 W/m 31,4 km/h (5 Bft)
09.06.2015 17:56 17,3 C 16,1 C 52 % 0 lf 1027,3 hPa 0,0 l/m 0 min 0 min 237 W/m 27,2 km/h (4 Bft)
09.06.2015 17:58 17,3 C 15,6 C 51 % 0 lf 1027,2 hPa 0,0 l/m 0 min 0 min 117 W/m 33,5 km/h (5 Bft)
09.06.2015 18:00 17,2 C 15,6 C 52 % 0 lf 1027,2 hPa 0,0 l/m 0 min 0 min 115 W/m 29,3 km/h (5 Bft)
09.06.2015 18:02 17,1 C 15,6 C 52 % 0 lf 1027,1 hPa 0,0 l/m 0 min 0 min 130 W/m 29,3 km/h (5 Bft)
09.06.2015 18:06 16,9 C 15,6 C 53 % 0 lf 1027,1 hPa 0,0 l/m 2 min 0 min 377 W/m 27,2 km/h (4 Bft)
09.06.2015 18:08 16,9 C 16,1 C 53 % 0 lf 1027,0 hPa 0,0 l/m 2 min 0 min 567 W/m 14,6 km/h (3 Bft)
09.06.2015 18:10 16,9 C 16,1 C 53 % 0 lf 1027,0 hPa 0,0 l/m 2 min 0 min 575 W/m 16,7 km/h (3 Bft)
09.06.2015 18:12 16,9 C 16,1 C 52 % 0 lf 1027,1 hPa 0,0 l/m 2 min 0 min 603 W/m 29,3 km/h (5 Bft)
09.06.2015 18:14 16,9 C 16,7 C 53 % 0 lf 1027,1 hPa 0,0 l/m 2 min 0 min 473 W/m 27,2 km/h (4 Bft)
09.06.2015 18:16 16,9 C 16,7 C 53 % 0 lf 1027,2 hPa 0,0 l/m 0 min 0 min 211 W/m 27,2 km/h (4 Bft)
09.06.2015 18:18 16,9 C 16,1 C 52 % 0 lf 1027,1 hPa 0,0 l/m 0 min 0 min 181 W/m 31,4 km/h (5 Bft)
09.06.2015 18:20 16,9 C 15,6 C 52 % 0 lf 1027,0 hPa 0,0 l/m 0 min 0 min 166 W/m 25,1 km/h (4 Bft)
09.06.2015 18:22 16,8 C 15,6 C 52 % 0 lf 1027,1 hPa 0,0 l/m 0 min 0 min 155 W/m 25,1 km/h (4 Bft)
09.06.2015 18:24 16,8 C 15,6 C 52 % 0 lf 1027,1 hPa 0,0 l/m 2 min 0 min 335 W/m 23,0 km/h (4 Bft)
09.06.2015 18:26 16,7 C 15,6 C 53 % 0 lf 1027,1 hPa 0,0 l/m 2 min 0 min 474 W/m 25,1 km/h (4 Bft)
09.06.2015 18:28 16,7 C 15,6 C 53 % 0 lf 1027,1 hPa 0,0 l/m 2 min 0 min 471 W/m 29,3 km/h (5 Bft)
09.06.2015 18:30 16,6 C 15,6 C 53 % 0 lf 1027,1 hPa 0,0 l/m 2 min 0 min 429 W/m 25,1 km/h (4 Bft)
09.06.2015 18:32 16,6 C 15,6 C 53 % 0 lf 1027,0 hPa 0,0 l/m 2 min 0 min 294 W/m 29,3 km/h (5 Bft)
09.06.2015 18:34 16,6 C 15,6 C 53 % 0 lf 1027,1 hPa 0,0 l/m 2 min 0 min 222 W/m 18,8 km/h (3 Bft)
09.06.2015 18:36 16,6 C 15,6 C 53 % 0 lf 1027,1 hPa 0,0 l/m 0 min 0 min 210 W/m 27,2 km/h (4 Bft)
09.06.2015 18:38 16,6 C 15,6 C 53 % 0 lf 1027,0 hPa 0,0 l/m 2 min 0 min 404 W/m 20,9 km/h (4 Bft)
09.06.2015 18:40 16,6 C 15,6 C 54 % 0 lf 1027,1 hPa 0,0 l/m 2 min 0 min 442 W/m 23,0 km/h (4 Bft)
09.06.2015 18:42 16,6 C 16,1 C 54 % 0 lf 1027,1 hPa 0,0 l/m 2 min 0 min 414 W/m 25,1 km/h (4 Bft)
09.06.2015 18:44 16,7 C 15,6 C 53 % 0 lf 1027,2 hPa 0,0 l/m 2 min 0 min 424 W/m 27,2 km/h (4 Bft)
09.06.2015 18:46 16,7 C 15,6 C 53 % 0 lf 1027,1 hPa 0,0 l/m 2 min 0 min 414 W/m 23,0 km/h (4 Bft)
09.06.2015 18:48 16,7 C 15,6 C 53 % 0 lf 1027,2 hPa 0,0 l/m 2 min 0 min 413 W/m 29,3 km/h (5 Bft)
09.06.2015 18:50 16,7 C 15,6 C 53 % 0 lf 1027,1 hPa 0,0 l/m 2 min 0 min 400 W/m 20,9 km/h (4 Bft)
09.06.2015 18:52 16,6 C 15,6 C 54 % 0 lf 1027,1 hPa 0,0 l/m 2 min 0 min 388 W/m 16,7 km/h (3 Bft)
09.06.2015 18:54 16,7 C 15,6 C 53 % 0 lf 1027,1 hPa 0,0 l/m 2 min 0 min 394 W/m 20,9 km/h (4 Bft)
09.06.2015 18:56 16,6 C 15,6 C 53 % 0 lf 1027,1 hPa 0,0 l/m 2 min 0 min 404 W/m 20,9 km/h (4 Bft)
09.06.2015 18:58 16,7 C 15,6 C 53 % 0 lf 1027,2 hPa 0,0 l/m 2 min 0 min 415 W/m 20,9 km/h (4 Bft)
09.06.2015 19:00 16,7 C 16,1 C 54 % 0 lf 1027,1 hPa 0,0 l/m 2 min 0 min 405 W/m 25,1 km/h (4 Bft)
09.06.2015 19:02 16,7 C 16,1 C 53 % 0 lf 1027,1 hPa 0,0 l/m 2 min 0 min 373 W/m 31,4 km/h (5 Bft)
09.06.2015 19:04 16,7 C 15,6 C 53 % 0 lf 1027,2 hPa 0,0 l/m 2 min 0 min 318 W/m 20,9 km/h (4 Bft)
09.06.2015 19:06 16,7 C 15,6 C 53 % 0 lf 1027,2 hPa 0,0 l/m 0 min 0 min 126 W/m 25,1 km/h (4 Bft)
09.06.2015 19:08 16,7 C 15,6 C 53 % 0 lf 1027,2 hPa 0,0 l/m 0 min 0 min 123 W/m 23,0 km/h (4 Bft)
09.06.2015 19:10 16,7 C 15,6 C 53 % 0 lf 1027,1 hPa 0,0 l/m 2 min 0 min 205 W/m 14,6 km/h (3 Bft)
09.06.2015 19:12 16,7 C 15,0 C 53 % 0 lf 1027,2 hPa 0,0 l/m 0 min 0 min 164 W/m 20,9 km/h (4 Bft)
09.06.2015 19:14 16,6 C 15,0 C 53 % 0 lf 1027,2 hPa 0,0 l/m 0 min 0 min 167 W/m 23,0 km/h (4 Bft)
09.06.2015 19:16 16,6 C 15,0 C 53 % 0 lf 1027,1 hPa 0,0 l/m 0 min 0 min 127 W/m 20,9 km/h (4 Bft)
09.06.2015 19:18 16,6 C 15,0 C 53 % 0 lf 1027,1 hPa 0,0 l/m 0 min 0 min 145 W/m 14,6 km/h (3 Bft)
09.06.2015 19:20 16,5 C 15,0 C 53 % 0 lf 1027,1 hPa 0,0 l/m 2 min 0 min 284 W/m 25,1 km/h (4 Bft)
09.06.2015 19:22 16,5 C 15,0 C 54 % 0 lf 1027,1 hPa 0,0 l/m 2 min 0 min 325 W/m 18,8 km/h (3 Bft)
09.06.2015 19:24 16,5 C 15,6 C 54 % 0 lf 1027,1 hPa 0,0 l/m 2 min 0 min 344 W/m 23,0 km/h (4 Bft)
09.06.2015 19:26 16,5 C 15,6 C 54 % 0 lf 1027,1 hPa 0,0 l/m 2 min 0 min 348 W/m 33,5 km/h (5 Bft)
09.06.2015 19:28 16,4 C 15,6 C 53 % 0 lf 1027,1 hPa 0,0 l/m 2 min 0 min 336 W/m 27,2 km/h (4 Bft)
09.06.2015 19:30 16,4 C 15,6 C 54 % 0 lf 1027,1 hPa 0,0 l/m 2 min 0 min 294 W/m 29,3 km/h (5 Bft)
09.06.2015 19:32 16,5 C 15,6 C 54 % 0 lf 1027,1 hPa 0,0 l/m 2 min 0 min 196 W/m 29,3 km/h (5 Bft)
09.06.2015 19:34 16,4 C 15,6 C 53 % 0 lf 1027,0 hPa 0,0 l/m 2 min 0 min 207 W/m 29,3 km/h (5 Bft)
09.06.2015 19:36 16,4 C 15,6 C 54 % 0 lf 1027,0 hPa 0,0 l/m 2 min 0 min 226 W/m 18,8 km/h (3 Bft)
09.06.2015 19:38 16,4 C 15,0 C 53 % 0 lf 1027,0 hPa 0,0 l/m 0 min 0 min 122 W/m 20,9 km/h (4 Bft)
09.06.2015 19:40 16,4 C 15,0 C 54 % 0 lf 1027,0 hPa 0,0 l/m 2 min 0 min 223 W/m 25,1 km/h (4 Bft)
09.06.2015 19:42 16,4 C 15,0 C 54 % 0 lf 1027,1 hPa 0,0 l/m 2 min 0 min 218 W/m 25,1 km/h (4 Bft)
09.06.2015 19:44 16,3 C 15,0 C 54 % 0 lf 1027,1 hPa 0,0 l/m 2 min 0 min 204 W/m 27,2 km/h (4 Bft)
09.06.2015 19:46 16,3 C 15,0 C 54 % 0 lf 1027,1 hPa 0,0 l/m 2 min 0 min 191 W/m 23,0 km/h (4 Bft)
09.06.2015 19:48 16,2 C 15,0 C 54 % 0 lf 1027,1 hPa 0,0 l/m 2 min 0 min 190 W/m 20,9 km/h (4 Bft)
09.06.2015 19:50 16,2 C 15,0 C 53 % 0 lf 1027,0 hPa 0,0 l/m 2 min 0 min 190 W/m 27,2 km/h (4 Bft)
09.06.2015 19:52 16,2 C 15,0 C 54 % 0 lf 1027,0 hPa 0,0 l/m 2 min 0 min 184 W/m 25,1 km/h (4 Bft)
09.06.2015 19:54 16,1 C 14,4 C 54 % 0 lf 1026,9 hPa 0,0 l/m 2 min 0 min 177 W/m 18,8 km/h (3 Bft)
09.06.2015 19:56 16,1 C 15,0 C 54 % 0 lf 1026,9 hPa 0,0 l/m 2 min 0 min 172 W/m 18,8 km/h (3 Bft)
09.06.2015 19:58 16,1 C 15,0 C 54 % 0 lf 1027,0 hPa 0,0 l/m 2 min 0 min 171 W/m 25,1 km/h (4 Bft)
09.06.2015 20:00 16,1 C 15,0 C 54 % 0 lf 1027,1 hPa 0,0 l/m 2 min 0 min 166 W/m 31,4 km/h (5 Bft)
09.06.2015 20:02 16,0 C 15,0 C 54 % 0 lf 1027,0 hPa 0,0 l/m 2 min 0 min 160 W/m 25,1 km/h (4 Bft)
09.06.2015 20:04 16,0 C 14,4 C 54 % 0 lf 1027,0 hPa 0,0 l/m 2 min 0 min 156 W/m 23,0 km/h (4 Bft)
09.06.2015 20:06 15,9 C 14,4 C 54 % 0 lf 1027,0 hPa 0,0 l/m 2 min 0 min 149 W/m 23,0 km/h (4 Bft)
09.06.2015 20:08 15,9 C 14,4 C 54 % 0 lf 1027,0 hPa 0,0 l/m 2 min 0 min 143 W/m 23,0 km/h (4 Bft)
09.06.2015 20:10 15,9 C 14,4 C 54 % 0 lf 1027,0 hPa 0,0 l/m 2 min 0 min 137 W/m 29,3 km/h (5 Bft)
09.06.2015 20:12 15,9 C 14,4 C 54 % 0 lf 1027,1 hPa 0,0 l/m 2 min 0 min 133 W/m 31,4 km/h (5 Bft)
09.06.2015 20:14 15,8 C 14,4 C 54 % 0 lf 1027,1 hPa 0,0 l/m 2 min 0 min 129 W/m 20,9 km/h (4 Bft)
09.06.2015 20:16 15,8 C 14,4 C 54 % 0 lf 1027,1 hPa 0,0 l/m 2 min 0 min 125 W/m 20,9 km/h (4 Bft)
09.06.2015 20:18 15,8 C 14,4 C 54 % 0 lf 1027,1 hPa 0,0 l/m 2 min 0 min 122 W/m 16,7 km/h (3 Bft)
09.06.2015 20:20 15,8 C 14,4 C 54 % 0 lf 1027,0 hPa 0,0 l/m 2 min 0 min 116 W/m 25,1 km/h (4 Bft)
09.06.2015 20:22 15,8 C 14,4 C 54 % 0 lf 1027,0 hPa 0,0 l/m 2 min 0 min 112 W/m 25,1 km/h (4 Bft)
09.06.2015 20:24 15,8 C 14,4 C 54 % 0 lf 1026,9 hPa 0,0 l/m 2 min 0 min 106 W/m 20,9 km/h (4 Bft)
09.06.2015 20:26 15,8 C 14,4 C 54 % 0 lf 1026,9 hPa 0,0 l/m 2 min 0 min 101 W/m 18,8 km/h (3 Bft)
09.06.2015 20:28 15,8 C 14,4 C 54 % 0 lf 1026,9 hPa 0,0 l/m 2 min 0 min 96 W/m 16,7 km/h (3 Bft)
09.06.2015 20:30 15,8 C 14,4 C 54 % 0 lf 1026,9 hPa 0,0 l/m 2 min 0 min 91 W/m 14,6 km/h (3 Bft)
09.06.2015 20:32 15,8 C 14,4 C 54 % 0 lf 1026,9 hPa 0,0 l/m 2 min 0 min 87 W/m 20,9 km/h (4 Bft)
09.06.2015 20:34 15,7 C 14,4 C 54 % 0 lf 1026,9 hPa 0,0 l/m 2 min 0 min 83 W/m 14,6 km/h (3 Bft)
09.06.2015 20:36 15,7 C 14,4 C 54 % 0 lf 1026,9 hPa 0,0 l/m 2 min 0 min 78 W/m 25,1 km/h (4 Bft)
09.06.2015 20:38 15,7 C 14,4 C 54 % 0 lf 1026,9 hPa 0,0 l/m 2 min 0 min 76 W/m 23,0 km/h (4 Bft)
09.06.2015 20:40 15,7 C 14,4 C 54 % 0 lf 1027,0 hPa 0,0 l/m 2 min 0 min 72 W/m 20,9 km/h (4 Bft)
09.06.2015 20:42 15,7 C 14,4 C 54 % 0 lf 1027,0 hPa 0,0 l/m 0 min 0 min 63 W/m 18,8 km/h (3 Bft)
09.06.2015 20:44 15,7 C 13,9 C 54 % 0 lf 1027,0 hPa 0,0 l/m 0 min 0 min 57 W/m 14,6 km/h (3 Bft)
09.06.2015 20:46 15,7 C 13,9 C 55 % 0 lf 1027,0 hPa 0,0 l/m 0 min 0 min 57 W/m 12,6 km/h (3 Bft)
09.06.2015 20:48 15,7 C 13,9 C 55 % 0 lf 1027,0 hPa 0,0 l/m 0 min 0 min 46 W/m 12,6 km/h (3 Bft)
09.06.2015 20:50 15,6 C 13,9 C 55 % 0 lf 1027,0 hPa 0,0 l/m 0 min 0 min 42 W/m 12,6 km/h (3 Bft)
09.06.2015 20:52 15,6 C 13,9 C 55 % 0 lf 1027,0 hPa 0,0 l/m 0 min 0 min 44 W/m 10,5 km/h (2 Bft)
09.06.2015 20:54 15,6 C 13,9 C 55 % 0 lf 1027,0 hPa 0,0 l/m 0 min 0 min 43 W/m 16,7 km/h (3 Bft)
09.06.2015 20:56 15,6 C 13,9 C 55 % 0 lf 1027,0 hPa 0,0 l/m 0 min 0 min 44 W/m 10,5 km/h (2 Bft)
09.06.2015 20:58 15,5 C 13,9 C 56 % 0 lf 1027,0 hPa 0,0 l/m 0 min 0 min 42 W/m 8,4 km/h (2 Bft)
09.06.2015 21:00 15,5 C 13,3 C 55 % 0 lf 1026,9 hPa 0,0 l/m 0 min 0 min 40 W/m 12,6 km/h (3 Bft)
09.06.2015 21:02 15,5 C 13,3 C 55 % 0 lf 1027,0 hPa 0,0 l/m 0 min 0 min 38 W/m 10,5 km/h (2 Bft)
09.06.2015 21:04 15,4 C 13,3 C 55 % 0 lf 1026,9 hPa 0,0 l/m 0 min 0 min 36 W/m 10,5 km/h (2 Bft)
09.06.2015 21:06 15,4 C 13,3 C 55 % 0 lf 1026,9 hPa 0,0 l/m 0 min 0 min 33 W/m 10,5 km/h (2 Bft)
09.06.2015 21:08 15,4 C 13,3 C 55 % 0 lf 1026,9 hPa 0,0 l/m 0 min 0 min 32 W/m 16,7 km/h (3 Bft)
09.06.2015 21:10 15,3 C 13,3 C 55 % 0 lf 1026,9 hPa 0,0 l/m 0 min 0 min 30 W/m 18,8 km/h (3 Bft)
09.06.2015 21:12 15,3 C 13,3 C 55 % 0 lf 1026,8 hPa 0,0 l/m 0 min 0 min 28 W/m 16,7 km/h (3 Bft)
09.06.2015 21:14 15,2 C 13,3 C 56 % 0 lf 1027,0 hPa 0,0 l/m 0 min 0 min 27 W/m 23,0 km/h (4 Bft)
09.06.2015 21:16 15,2 C 13,3 C 55 % 0 lf 1026,8 hPa 0,0 l/m 0 min 0 min 26 W/m 18,8 km/h (3 Bft)
09.06.2015 21:18 15,2 C 13,3 C 55 % 0 lf 1026,8 hPa 0,0 l/m 0 min 0 min 24 W/m 18,8 km/h (3 Bft)
09.06.2015 21:20 15,1 C 13,3 C 55 % 0 lf 1026,9 hPa 0,0 l/m 2 min 0 min 23 W/m 16,7 km/h (3 Bft)
09.06.2015 21:22 15,1 C 13,3 C 55 % 0 lf 1026,9 hPa 0,0 l/m 2 min 0 min 21 W/m 20,9 km/h (4 Bft)
09.06.2015 21:24 15,1 C 13,3 C 55 % 0 lf 1026,9 hPa 0,0 l/m 2 min 0 min 19 W/m 23,0 km/h (4 Bft)
09.06.2015 21:26 15,0 C 13,3 C 54 % 0 lf 1026,9 hPa 0,0 l/m 0 min 0 min 18 W/m 20,9 km/h (4 Bft)
09.06.2015 21:28 14,9 C 13,3 C 55 % 0 lf 1026,9 hPa 0,0 l/m 0 min 0 min 17 W/m 16,7 km/h (3 Bft)
09.06.2015 21:30 14,9 C 13,3 C 55 % 0 lf 1026,9 hPa 0,0 l/m 0 min 0 min 16 W/m 16,7 km/h (3 Bft)
09.06.2015 21:32 14,9 C 13,3 C 55 % 0 lf 1027,0 hPa 0,0 l/m 0 min 0 min 15 W/m 16,7 km/h (3 Bft)
09.06.2015 21:34 14,9 C 12,8 C 55 % 0 lf 1027,0 hPa 0,0 l/m 0 min 0 min 14 W/m 16,7 km/h (3 Bft)
09.06.2015 21:36 14,8 C 12,8 C 55 % 0 lf 1026,9 hPa 0,0 l/m 0 min 0 min 13 W/m 12,6 km/h (3 Bft)
09.06.2015 21:38 14,8 C 12,8 C 55 % 0 lf 1027,0 hPa 0,0 l/m 0 min 0 min 12 W/m 18,8 km/h (3 Bft)
09.06.2015 21:40 14,8 C 12,8 C 55 % 0 lf 1027,0 hPa 0,0 l/m 0 min 0 min 12 W/m 16,7 km/h (3 Bft)
09.06.2015 21:42 14,8 C 12,8 C 55 % 0 lf 1027,0 hPa 0,0 l/m 0 min 0 min 11 W/m 16,7 km/h (3 Bft)
09.06.2015 21:44 14,7 C 12,8 C 55 % 0 lf 1027,0 hPa 0,0 l/m 0 min 0 min 11 W/m 14,6 km/h (3 Bft)
09.06.2015 21:46 14,7 C 12,8 C 56 % 0 lf 1027,1 hPa 0,0 l/m 0 min 0 min 9 W/m 12,6 km/h (3 Bft)
09.06.2015 21:48 14,7 C 12,8 C 56 % 0 lf 1027,1 hPa 0,0 l/m 0 min 0 min 9 W/m 14,6 km/h (3 Bft)
09.06.2015 21:50 14,6 C 12,8 C 56 % 0 lf 1027,1 hPa 0,0 l/m 0 min 0 min 9 W/m 10,5 km/h (2 Bft)
09.06.2015 21:52 14,6 C 12,8 C 57 % 0 lf 1027,1 hPa 0,0 l/m 0 min 0 min 7 W/m 10,5 km/h (2 Bft)
09.06.2015 21:54 14,6 C 12,8 C 57 % 0 lf 1027,1 hPa 0,0 l/m 0 min 0 min 7 W/m 14,6 km/h (3 Bft)
09.06.2015 21:56 14,5 C 12,8 C 58 % 0 lf 1027,1 hPa 0,0 l/m 0 min 0 min 7 W/m 14,6 km/h (3 Bft)
09.06.2015 21:58 14,4 C 12,8 C 58 % 0 lf 1027,1 hPa 0,0 l/m 0 min 0 min 6 W/m 10,5 km/h (2 Bft)
09.06.2015 22:00 14,4 C 12,8 C 58 % 0 lf 1027,1 hPa 0,0 l/m 0 min 0 min 5 W/m 14,6 km/h (3 Bft)
09.06.2015 22:02 14,3 C 12,8 C 58 % 0 lf 1027,1 hPa 0,0 l/m 0 min 0 min 5 W/m 12,6 km/h (3 Bft)
09.06.2015 22:04 14,3 C 12,2 C 59 % 0 lf 1027,1 hPa 0,0 l/m 0 min 0 min 5 W/m 12,6 km/h (3 Bft)
09.06.2015 22:06 14,3 C 12,2 C 59 % 0 lf 1027,1 hPa 0,0 l/m 0 min 0 min 5 W/m 12,6 km/h (3 Bft)
09.06.2015 22:08 14,2 C 12,2 C 60 % 0 lf 1027,1 hPa 0,0 l/m 0 min 0 min 1 W/m 10,5 km/h (2 Bft)
09.06.2015 22:10 14,2 C 12,2 C 60 % 0 lf 1027,1 hPa 0,0 l/m 0 min 0 min 0 W/m 10,5 km/h (2 Bft)
09.06.2015 22:12 14,2 C 12,2 C 60 % 0 lf 1027,1 hPa 0,0 l/m 0 min 0 min 0 W/m 12,6 km/h (3 Bft)
09.06.2015 22:14 14,2 C 12,2 C 60 % 0 lf 1027,1 hPa 0,0 l/m 0 min 0 min 0 W/m 10,5 km/h (2 Bft)
09.06.2015 22:16 14,2 C 12,2 C 61 % 0 lf 1027,1 hPa 0,0 l/m 0 min 0 min 0 W/m 10,5 km/h (2 Bft)
09.06.2015 22:18 14,2 C 12,2 C 61 % 0 lf 1027,1 hPa 0,0 l/m 0 min 0 min 0 W/m 12,6 km/h (3 Bft)
09.06.2015 22:20 14,1 C 12,2 C 61 % 0 lf 1027,1 hPa 0,0 l/m 0 min 0 min 0 W/m 8,4 km/h (2 Bft)
09.06.2015 22:22 14,1 C 12,2 C 61 % 0 lf 1027,2 hPa 0,0 l/m 0 min 0 min 0 W/m 8,4 km/h (2 Bft)
09.06.2015 22:24 14,0 C 12,2 C 62 % 0 lf 1027,2 hPa 0,0 l/m 0 min 0 min 0 W/m 8,4 km/h (2 Bft)
09.06.2015 22:26 13,9 C 12,2 C 62 % 0 lf 1027,2 hPa 0,0 l/m 0 min 0 min 0 W/m 8,4 km/h (2 Bft)
09.06.2015 22:28 13,9 C 12,2 C 62 % 0 lf 1027,2 hPa 0,0 l/m 0 min 0 min 0 W/m 6,3 km/h (2 Bft)
09.06.2015 22:30 13,9 C 11,7 C 62 % 0 lf 1027,2 hPa 0,0 l/m 0 min 0 min 0 W/m 10,5 km/h (2 Bft)
09.06.2015 22:32 13,8 C 11,7 C 62 % 0 lf 1027,2 hPa 0,0 l/m 0 min 0 min 0 W/m 8,4 km/h (2 Bft)
09.06.2015 22:34 13,8 C 11,7 C 62 % 0 lf 1027,2 hPa 0,0 l/m 0 min 0 min 0 W/m 8,4 km/h (2 Bft)
09.06.2015 22:36 13,7 C 11,7 C 63 % 0 lf 1027,2 hPa 0,0 l/m 0 min 0 min 0 W/m 10,5 km/h (2 Bft)
09.06.2015 22:38 13,7 C 11,7 C 63 % 0 lf 1027,3 hPa 0,0 l/m 0 min 0 min 0 W/m 8,4 km/h (2 Bft)
09.06.2015 22:40 13,6 C 11,7 C 63 % 0 lf 1027,2 hPa 0,0 l/m 0 min 0 min 0 W/m 8,4 km/h (2 Bft)
09.06.2015 22:42 13,6 C 11,7 C 64 % 0 lf 1027,2 hPa 0,0 l/m 0 min 0 min 0 W/m 8,4 km/h (2 Bft)
09.06.2015 22:44 13,5 C 11,7 C 64 % 0 lf 1027,3 hPa 0,0 l/m 0 min 0 min 0 W/m 10,5 km/h (2 Bft)
09.06.2015 22:46 13,4 C 11,7 C 64 % 0 lf 1027,2 hPa 0,0 l/m 0 min 0 min 0 W/m 6,3 km/h (2 Bft)
09.06.2015 22:48 13,4 C 11,7 C 64 % 0 lf 1027,3 hPa 0,0 l/m 0 min 0 min 0 W/m 6,3 km/h (2 Bft)
09.06.2015 22:50 13,3 C 11,7 C 65 % 0 lf 1027,3 hPa 0,0 l/m 0 min 0 min 0 W/m 6,3 km/h (2 Bft)
09.06.2015 22:52 13,3 C 11,1 C 65 % 0 lf 1027,3 hPa 0,0 l/m 0 min 0 min 0 W/m 6,3 km/h (2 Bft)
09.06.2015 22:54 13,3 C 11,1 C 65 % 0 lf 1027,3 hPa 0,0 l/m 0 min 0 min 0 W/m 8,4 km/h (2 Bft)
09.06.2015 22:56 13,2 C 11,1 C 66 % 0 lf 1027,2 hPa 0,0 l/m 0 min 0 min 0 W/m 10,5 km/h (2 Bft)
09.06.2015 22:58 13,2 C 11,1 C 66 % 0 lf 1027,2 hPa 0,0 l/m 0 min 0 min 0 W/m 8,4 km/h (2 Bft)
09.06.2015 23:00 13,1 C 11,1 C 66 % 0 lf 1027,3 hPa 0,0 l/m 0 min 0 min 0 W/m 6,3 km/h (2 Bft)
09.06.2015 23:02 13,1 C 11,1 C 67 % 0 lf 1027,3 hPa 0,0 l/m 0 min 0 min 0 W/m 8,4 km/h (2 Bft)
09.06.2015 23:04 13,0 C 11,1 C 67 % 0 lf 1027,3 hPa 0,0 l/m 0 min 0 min 0 W/m 8,4 km/h (2 Bft)
09.06.2015 23:06 12,9 C 11,1 C 67 % 0 lf 1027,4 hPa 0,0 l/m 0 min 0 min 0 W/m 8,4 km/h (2 Bft)
09.06.2015 23:08 12,9 C 11,1 C 68 % 0 lf 1027,4 hPa 0,0 l/m 0 min 0 min 0 W/m 8,4 km/h (2 Bft)
09.06.2015 23:10 12,9 C 11,1 C 68 % 0 lf 1027,4 hPa 0,0 l/m 0 min 0 min 0 W/m 6,3 km/h (2 Bft)
09.06.2015 23:12 12,8 C 11,1 C 68 % 0 lf 1027,5 hPa 0,0 l/m 0 min 0 min 0 W/m 8,4 km/h (2 Bft)
09.06.2015 23:14 12,8 C 11,1 C 68 % 0 lf 1027,4 hPa 0,0 l/m 0 min 0 min 0 W/m 8,4 km/h (2 Bft)
09.06.2015 23:16 12,8 C 11,1 C 69 % 0 lf 1027,5 hPa 0,0 l/m 0 min 0 min 0 W/m 6,3 km/h (2 Bft)
09.06.2015 23:18 12,7 C 11,1 C 69 % 0 lf 1027,5 hPa 0,0 l/m 0 min 0 min 0 W/m 8,4 km/h (2 Bft)
09.06.2015 23:20 12,7 C 11,1 C 69 % 0 lf 1027,5 hPa 0,0 l/m 0 min 0 min 0 W/m 6,3 km/h (2 Bft)
09.06.2015 23:22 12,7 C 10,6 C 69 % 0 lf 1027,5 hPa 0,0 l/m 0 min 0 min 0 W/m 8,4 km/h (2 Bft)
09.06.2015 23:24 12,6 C 10,6 C 69 % 0 lf 1027,5 hPa 0,0 l/m 0 min 0 min 0 W/m 8,4 km/h (2 Bft)
09.06.2015 23:26 12,6 C 10,6 C 70 % 0 lf 1027,5 hPa 0,0 l/m 0 min 0 min 0 W/m 8,4 km/h (2 Bft)
09.06.2015 23:28 12,6 C 10,6 C 70 % 0 lf 1027,5 hPa 0,0 l/m 0 min 0 min 0 W/m 8,4 km/h (2 Bft)
09.06.2015 23:30 12,5 C 10,6 C 70 % 0 lf 1027,5 hPa 0,0 l/m 0 min 0 min 0 W/m 8,4 km/h (2 Bft)
09.06.2015 23:32 12,5 C 10,6 C 70 % 0 lf 1027,6 hPa 0,0 l/m 0 min 0 min 0 W/m 6,3 km/h (2 Bft)
09.06.2015 23:34 12,4 C 10,6 C 70 % 0 lf 1027,5 hPa 0,0 l/m 0 min 0 min 0 W/m 6,3 km/h (2 Bft)
09.06.2015 23:36 12,4 C 10,6 C 70 % 0 lf 1027,5 hPa 0,0 l/m 0 min 0 min 0 W/m 6,3 km/h (2 Bft)
09.06.2015 23:38 12,4 C 10,6 C 70 % 0 lf 1027,4 hPa 0,0 l/m 0 min 0 min 0 W/m 6,3 km/h (2 Bft)
09.06.2015 23:40 12,3 C 10,6 C 71 % 0 lf 1027,5 hPa 0,0 l/m 0 min 0 min 0 W/m 8,4 km/h (2 Bft)
09.06.2015 23:42 12,3 C 10,6 C 71 % 0 lf 1027,4 hPa 0,0 l/m 0 min 0 min 0 W/m 8,4 km/h (2 Bft)
09.06.2015 23:44 12,2 C 10,6 C 71 % 0 lf 1027,5 hPa 0,0 l/m 0 min 0 min 0 W/m 8,4 km/h (2 Bft)
09.06.2015 23:46 12,2 C 10,6 C 71 % 0 lf 1027,5 hPa 0,0 l/m 0 min 0 min 0 W/m 8,4 km/h (2 Bft)
09.06.2015 23:48 12,2 C 10,6 C 71 % 0 lf 1027,6 hPa 0,0 l/m 0 min 0 min 0 W/m 6,3 km/h (2 Bft)
09.06.2015 23:50 12,2 C 10,6 C 72 % 0 lf 1027,6 hPa 0,0 l/m 0 min 0 min 0 W/m 10,5 km/h (2 Bft)
09.06.2015 23:52 12,1 C 10,6 C 72 % 0 lf 1027,5 hPa 0,0 l/m 0 min 0 min 0 W/m 8,4 km/h (2 Bft)
09.06.2015 23:54 12,1 C 10,0 C 72 % 0 lf 1027,5 hPa 0,0 l/m 0 min 0 min 0 W/m 8,4 km/h (2 Bft)
09.06.2015 23:56 12,1 C 10,0 C 72 % 0 lf 1027,5 hPa 0,0 l/m 0 min 0 min 0 W/m 8,4 km/h (2 Bft)
09.06.2015 23:58 12,0 C 10,0 C 72 % 0 lf 1027,5 hPa 0,0 l/m 0 min 0 min 0 W/m 6,3 km/h (2 Bft)
_ Min-Zeit 05:36 05:34 16:14 00:00 21:12 - - - - 22:28
Minimum _ 7,9 C 6,7 C 50 % 0 lf 1026,8 hPa - - - - 6,3 km/h (2 Bft)
_ Max-Zeit 17:06 16:30 05:42 00:00 09:22 00:00 05:40 00:00 13:26 08:48
Maximum _ 17,9 C 22,8 C 88 % 0 lf 1029,5 hPa 0,0 l/m 2 min 0 min 1163 W/m 39,7 km/h
N-NO (6 Bft)
Durchschnitt _ 13,2 C 12,7 C 67 % 0 lf 1028,2 hPa #0,0 l/m #10:22 h #0 min. 381 W/m 20,8 km/h (4 Bft)
© 2015 W. Hausmann